[[{"header":{"parameterUnit":"m.s-1","parameterCategory":1,"la1":30.6,"la2":29.2853,"lo1":-89.7004,"lo2":-87.6739,"dy":0.0162,"dx":0.0183,"nx":112,"ny":82,"refTime":"2023-04-03T06:00:00:Z","depth":0,"parameterNumber":2,"parameterNumberName":"U-component_of_WINDS"},"data":[0.0,0.0,0.0,0.0,0.0,0.0,0.0,0.0,0.0,0.0,0.0,0.0,0.0,0.0,0.0,0.0,0.0,0.0,0.0,0.0,0.0,0.0,0.0,0.0,0.0,0.0,0.0,0.0,0.0,0.0,0.0,0.0,0.0,0.0,0.0,0.0,0.0,0.0,0.0,0.0,0.0,0.0,0.0,0.0,0.0,0.0,0.0,0.0,0.0,0.0,0.0,0.0,0.0,0.0,0.0,0.0,0.0,0.0,0.0,0.0,0.0,0.0,0.0,0.0,0.0,0.0,0.0,0.0,0.0,0.0,0.0,0.0,0.0,0.0,0.0,0.0,0.0,0.0,0.0,0.0,0.0,0.0,0.0,0.0,0.0,0.0,0.0,0.0,0.0,0.0,0.8245,0.7262,0.7154,0.7164,0.7166,0.7166,0.7166,0.7166,0.0,0.0,0.0,0.0,0.0,0.0,0.0,0.0,0.0,0.0,0.0,0.0,0.0,0.0,0.0,0.0,0.0,0.0,0.0,0.0,0.0,0.0,0.0,0.0,0.0,0.0,0.0,0.0,0.0,0.0,0.0,0.0,0.0,0.0,0.0,0.0,0.0,0.0,0.0,0.0,0.0,0.0,0.0,0.0,0.0,0.0,0.0,0.0,0.0,0.0,0.0,0.0,0.0,0.0,0.0,0.0,0.0,0.0,0.0,0.0,0.0,0.0,0.0,0.0,0.0,0.0,0.0,0.0,0.0,0.0,0.0,0.0,0.0,0.0,0.0,0.0,0.0,0.0,0.0,0.0,0.0,0.0,0.0,0.0,0.0,0.0,0.0,0.0,0.0,0.0,0.0,0.0,0.0,0.0,0.0,0.0,0.0,0.0,0.0,0.0,0.0,0.0,0.0,0.0,0.7368,0.7345,0.7359,0.741,0.7519,0.7529,0.7529,0.7529,0.0,0.0,0.0,0.0,0.0,0.0,0.0,0.0,0.0,0.0,0.0,0.0,0.0,0.0,0.0,0.0,0.0,0.0,0.0,0.0,0.0,0.0,0.0,0.0,0.0,0.0,0.0,0.0,0.0,0.0,0.0,0.0,0.0,0.0,0.0,0.0,0.0,0.0,0.0,0.0,0.0,0.0,0.0,0.0,0.0,0.0,0.0,0.0,0.0,0.0,0.0,0.0,0.0,0.0,0.0,0.0,0.0,0.0,0.0,0.0,0.0,0.0,0.0,0.0,0.0,0.0,0.0,0.0,0.0,0.0,0.0,0.0,0.0,0.0,0.0,0.0,0.0,0.0,0.0,0.0,0.0,0.0,0.0,0.0,0.0,0.0,0.0,0.0,0.0,0.0,0.0,0.0,0.0,0.0,0.0,0.0,0.0,0.0,0.0,0.0,0.0,0.0,0.0,0.7676,0.7417,0.7512,0.7519,0.7522,0.7594,0.76,0.76,0.76,0.7468,0.0,0.0,0.0,0.0,0.0,0.0,0.0,0.0,0.0,0.0,0.0,0.0,0.0,0.0,0.0,0.0,0.0,0.0,0.0,0.0,0.0,0.0,0.0,0.0,0.0,0.0,0.0,0.0,0.0,0.0,0.0,0.0,0.0,0.0,0.0,0.0,0.0,0.0,0.0,0.0,0.0,0.0,0.0,0.0,0.0,0.0,0.0,0.0,0.0,0.0,0.0,0.0,0.0,0.0,0.0,0.0,0.0,0.0,0.0,0.0,0.0,0.0,0.0,0.0,0.0,0.0,0.0,0.0,0.0,0.0,0.0,0.0,0.0,0.0,0.0,0.0,0.0,0.0,0.0,0.0,0.0,0.0,0.0,0.0,0.0,0.0,0.0,0.0,0.0,0.0,0.0,0.0,0.0,0.0,0.0,0.0,0.0,0.0,0.0,0.0,0.0,0.0,0.7529,0.7611,0.7645,0.7648,0.7665,0.7699,0.7702,0.7702,0.7702,0.7702,0.0,0.0,0.0,0.0,0.0,0.0,0.0,0.0,0.0,0.0,0.0,0.0,0.0,0.0,0.0,0.0,0.0,0.0,0.0,0.0,0.0,0.0,0.0,0.0,0.0,0.0,0.0,0.0,0.0,0.0,0.0,0.0,0.0,0.0,0.0,0.0,0.0,0.0,0.0,0.0,0.0,0.0,0.0,0.0,0.0,0.0,0.0,0.0,0.0,0.0,0.0,0.0,0.0,0.0,0.0,0.0,0.0,0.0,0.0,0.0,0.0,0.0,0.0,0.0,0.0,0.0,0.0,0.0,0.0,0.0,0.0,0.0,0.0,0.0,0.0,0.0,0.0,0.0,0.0,0.0,0.0,0.0,0.0,0.0,0.0,0.0,0.0,0.0,0.0,0.0,0.0,0.0,0.0,0.0,0.0,0.0,0.0,0.0,0.0,0.0,0.0,0.0,0.7594,0.7651,0.7784,0.7797,0.7827,0.7973,0.7983,0.7983,0.7983,0.7983,0.0,0.0,0.0,0.0,0.0,0.0,0.0,0.0,0.0,0.0,0.0,0.0,0.0,0.0,0.0,0.0,0.0,0.0,0.0,0.0,0.0,0.0,0.0,0.0,0.0,0.0,0.0,0.0,0.0,0.0,0.0,0.0,0.0,0.0,0.0,0.0,0.0,0.0,0.0,0.0,0.0,0.0,0.0,0.0,0.0,0.0,0.0,0.0,0.0,0.0,0.0,0.0,0.0,0.0,0.0,0.0,0.0,0.0,0.0,0.0,0.0,0.0,0.0,0.0,0.0,0.0,0.0,0.0,0.0,0.0,0.0,0.0,0.0,0.0,0.0,0.0,0.0,0.0,0.0,0.0,0.0,0.0,0.0,0.0,0.0,0.0,0.0,0.0,0.0,0.0,0.0,0.0,0.0,0.0,0.0,0.0,0.0,0.0,0.0,0.0,0.0,0.0,0.779,0.7868,0.7922,0.7929,0.7952,0.7985,0.7988,0.7988,0.7988,0.0,0.0,0.0,0.0,0.0,0.0,0.0,0.0,0.0,0.0,0.0,0.0,0.0,0.0,0.0,0.0,0.0,0.0,0.0,0.0,0.0,0.0,0.0,0.0,0.0,0.0,0.0,0.0,0.0,0.0,0.0,0.0,0.0,0.0,0.0,0.0,0.0,0.0,0.0,0.0,0.0,0.0,0.0,0.0,0.0,0.0,0.0,0.0,0.0,0.0,0.0,0.0,0.0,0.0,0.0,0.0,0.0,0.0,0.0,0.0,0.0,0.0,0.0,0.0,0.0,0.0,0.0,0.0,0.0,0.0,0.0,0.0,0.0,0.0,0.0,0.0,0.0,0.0,0.0,0.0,0.0,0.0,0.0,0.0,0.0,0.0,0.0,0.0,0.0,0.0,0.0,0.0,0.0,0.0,0.0,0.0,0.0,0.0,0.0,0.0,0.0,0.0,0.7858,0.7949,0.7988,0.7988,0.7988,0.7988,0.7988,0.7988,0.7988,0.7988,0.0,0.0,0.0,0.0,0.0,0.0,0.0,0.0,0.0,0.0,0.0,0.0,0.0,0.0,0.0,0.0,0.0,0.0,0.0,0.0,0.0,0.0,0.0,0.0,0.0,0.0,0.0,0.0,0.0,0.0,0.0,0.0,0.0,0.0,0.0,0.0,0.0,0.0,0.0,0.0,0.0,0.0,0.0,0.0,0.0,0.0,0.0,0.0,0.0,0.0,0.0,0.0,0.0,0.0,0.0,0.0,0.0,0.0,0.0,0.0,0.0,0.0,0.0,0.0,0.0,0.0,0.0,0.0,0.0,0.0,0.0,0.0,0.0,0.0,0.0,0.0,0.0,0.0,0.0,0.0,0.0,0.0,0.0,0.0,0.0,0.0,0.0,0.0,0.0,0.0,0.0,0.0,0.0,0.0,0.0,0.0,0.0,0.0,0.0,0.0,0.0,0.0,0.7988,0.7988,0.7988,0.7988,0.7988,0.7988,0.7988,0.7988,0.7988,0.0,0.0,0.0,0.0,0.0,0.0,0.0,0.0,0.0,0.0,0.0,0.0,0.0,0.0,0.0,0.0,0.0,0.0,0.0,0.0,0.0,0.0,0.0,0.0,0.0,0.0,0.0,0.0,0.0,0.0,0.0,0.0,0.0,0.0,0.0,0.0,0.0,0.0,0.0,0.0,0.0,0.0,0.0,0.0,0.0,0.0,0.0,0.0,0.0,0.0,0.0,0.0,0.0,0.0,0.0,0.0,0.0,0.0,0.0,0.0,0.0,0.0,0.0,0.0,0.0,0.0,0.0,0.0,0.0,0.0,0.0,0.0,0.0,0.0,0.0,0.0,0.0,0.0,0.0,0.0,0.0,0.0,0.0,0.0,0.0,0.0,0.0,0.0,0.0,0.0,0.0,0.0,0.0,0.0,0.0,0.0,0.0,0.0,0.0,0.0,0.0,0.0,0.0,0.7988,0.7988,0.7988,0.7988,0.7988,0.7988,0.7988,0.7988,0.7988,0.7988,0.0,0.0,0.0,0.0,0.0,0.0,0.0,0.0,0.0,0.0,0.0,0.0,0.0,0.0,0.0,0.0,0.0,0.0,0.0,0.0,0.0,0.0,0.0,0.0,0.0,0.0,0.0,0.0,0.0,0.0,0.0,0.0,0.0,0.0,0.0,0.0,0.0,0.0,0.0,0.0,0.0,0.0,0.0,0.0,0.0,0.0,0.0,0.0,0.0,0.0,0.0,0.0,0.0,0.0,0.0,0.0,0.0,0.0,0.0,0.0,0.0,0.0,0.0,0.0,0.0,0.0,0.0,0.0,0.0,0.0,0.0,0.0,0.0,0.0,0.0,0.0,0.0,0.0,0.0,0.0,0.0,0.0,0.0,0.0,0.0,0.0,0.0,0.0,0.0,0.0,0.0,0.0,0.0,0.0,0.0,0.0,0.0,0.0,0.0,0.0,0.0,0.0,0.7988,0.7988,0.7988,0.7988,0.7988,0.7988,0.7988,0.7988,0.7988,0.7988,0.0,0.0,0.0,0.0,0.0,0.0,0.0,0.0,0.0,0.0,0.0,0.0,0.0,0.0,0.0,0.0,0.0,0.0,0.0,0.0,0.0,0.0,0.0,0.0,0.0,0.0,0.0,0.0,0.0,0.0,0.0,0.0,0.0,0.0,0.0,0.0,0.0,0.0,0.0,0.0,0.0,0.0,0.0,0.0,0.0,0.0,0.0,0.0,0.0,0.0,0.0,0.0,0.0,0.0,0.0,0.0,0.0,0.0,0.0,0.0,0.0,0.0,0.0,0.0,0.0,0.0,0.0,0.0,0.0,0.0,0.0,0.0,0.0,0.0,0.0,0.0,0.0,0.0,0.0,0.0,0.0,0.0,0.0,0.0,0.0,0.0,0.0,0.0,0.0,0.0,0.0,0.0,0.0,0.0,0.0,0.0,0.0,0.0,0.0,0.0,0.0,0.0,0.7988,0.7988,0.7988,0.7988,0.7988,0.7988,0.7988,0.7988,0.7988,0.7988,0.0,0.0,0.0,0.0,0.0,0.0,0.0,0.0,0.0,0.0,0.0,0.0,0.0,0.0,0.0,0.0,0.0,0.0,0.0,0.0,0.0,0.0,0.0,0.0,0.0,0.0,0.0,0.0,0.0,0.0,0.0,0.0,0.0,0.0,0.0,0.0,0.0,0.0,0.0,0.0,0.0,0.0,0.0,0.0,0.0,0.0,0.0,0.0,0.0,0.0,0.0,0.0,0.0,0.0,0.0,0.0,0.0,0.0,0.0,0.0,1.9944,2.1269,0.0,0.0,0.0,0.0,0.0,0.0,0.0,0.0,0.0,0.0,0.0,0.0,0.0,0.0,0.0,0.0,0.0,0.0,0.0,0.0,0.0,0.0,0.0,0.0,0.0,0.0,0.0,0.0,0.0,0.0,0.0,0.0,0.0,0.0,0.0,0.0,0.0,0.0,0.0,0.0,0.7988,0.7988,0.7988,0.7988,0.7988,0.7988,0.7988,0.7988,0.7988,0.7988,0.7988,0.0,0.0,0.0,0.0,0.0,0.0,0.0,0.0,0.0,0.0,0.0,0.0,0.0,0.0,0.0,0.0,0.0,0.0,0.0,0.0,0.0,0.0,0.0,0.0,0.0,0.0,0.0,0.0,0.0,0.0,0.0,0.0,0.0,0.0,0.0,0.0,0.0,0.0,0.0,0.0,0.0,0.0,0.0,0.0,0.0,0.0,0.0,0.0,0.0,0.0,0.0,0.0,0.0,0.0,0.0,0.0,0.0,0.0,0.0,1.9351,2.0102,0.0,0.0,0.0,0.0,0.0,0.0,0.0,0.0,0.0,0.0,0.0,0.0,0.0,0.0,0.0,0.0,0.0,0.0,0.0,0.0,0.0,0.0,0.0,0.0,0.0,0.0,0.0,0.0,0.0,0.0,0.0,0.0,0.0,0.0,0.0,0.0,0.0,0.0,0.0,0.0,0.7988,0.7988,0.7988,0.7988,0.7988,0.7988,0.7988,0.7988,0.7988,0.7988,0.7988,0.0,0.0,0.0,0.0,0.0,0.0,0.0,0.0,0.0,0.0,0.0,0.0,0.0,0.0,0.0,0.0,0.0,0.0,0.0,0.0,0.0,0.0,0.0,0.0,0.0,0.0,0.0,0.0,0.0,0.0,0.0,0.0,0.0,0.0,0.0,0.0,0.0,0.0,0.0,0.0,0.0,0.0,0.0,0.0,0.0,0.0,0.0,0.0,0.0,0.0,0.0,0.0,0.0,1.8971,1.8856,1.8856,1.8856,1.8311,1.7428,1.8426,1.8434,1.7777,1.8772,0.0,0.0,0.0,0.0,0.0,0.0,0.0,0.0,0.0,0.0,0.0,0.0,0.0,0.0,0.0,0.0,0.0,0.0,0.0,0.0,0.0,0.0,0.9657,0.9657,0.88,0.8308,0.941,0.0,0.0,0.0,0.0,0.0,0.0,0.0,0.0,0.0,0.0,0.0,0.7988,0.7988,0.7988,0.7988,0.7988,0.7988,0.7988,0.7988,0.7988,0.7988,0.7988,0.7988,0.0,0.0,0.0,0.0,0.0,0.0,0.0,0.0,0.0,0.0,0.0,0.0,0.0,0.0,0.0,0.0,0.0,0.0,0.0,0.0,0.0,0.0,0.0,0.0,0.0,0.0,0.0,0.0,0.0,0.0,0.0,0.0,1.7957,1.7872,0.0,0.0,0.0,0.0,0.0,0.0,0.0,0.0,0.0,0.0,0.0,0.0,0.0,1.9497,1.9497,1.8457,1.794,1.7917,1.6819,1.6292,1.6292,1.6292,1.6197,1.6062,1.6221,0.0,1.7707,1.787,0.0,0.0,0.0,0.0,0.0,0.0,0.0,0.0,0.0,0.0,0.0,0.0,0.0,0.0,0.0,0.0,0.0,0.0,0.0,0.0,0.0,0.0,0.8258,0.8258,0.8137,0.8038,0.8233,0.8258,0.8212,0.8038,0.7988,0.7988,0.0,0.0,0.0,0.0,0.0,0.0,0.7988,0.7988,0.7988,0.7988,0.7988,0.7988,0.7988,0.7988,0.7988,0.7988,0.7988,0.7988,0.7988,0.7988,0.0,0.0,0.0,0.0,0.0,0.0,0.0,0.0,0.0,0.0,0.0,0.0,0.0,0.0,0.0,0.0,0.0,0.0,0.0,0.0,0.0,0.0,0.0,0.0,0.0,0.0,0.0,0.0,0.0,1.742,1.6622,1.6622,1.6133,1.6015,0.0,0.0,0.0,0.0,0.0,0.0,0.0,0.0,0.0,1.7436,1.7413,1.7413,1.7413,1.6889,1.6622,1.6622,1.6062,1.5808,1.5808,1.5808,1.5808,1.5808,1.5808,1.6109,1.6622,1.6622,1.6936,1.7483,0.0,0.0,0.0,0.0,1.8041,1.7343,1.6826,1.6153,1.5471,1.4913,0.0,0.0,0.0,0.0,0.0,0.0,0.0,1.0705,1.0145,0.8994,0.7988,0.7988,0.7988,0.7988,0.7988,0.7988,0.7988,0.7988,0.7988,0.7988,0.7988,0.7988,0.0,0.0,0.0,0.7988,0.7988,0.7988,0.7988,0.7988,0.7988,0.7988,0.7988,0.7988,0.7988,0.7988,0.7988,0.7988,0.7988,0.7988,0.7988,0.0,0.0,0.0,0.0,0.0,0.0,0.0,0.0,0.0,0.0,0.0,0.0,0.0,0.0,0.0,0.0,0.0,0.0,0.0,0.0,0.0,0.0,0.0,0.0,0.0,0.0,0.0,0.0,1.641,1.5808,1.5808,1.5808,1.5808,0.0,0.0,0.0,0.0,0.0,0.0,1.5849,1.6692,1.6786,1.5832,1.5808,1.5841,1.5921,1.5921,1.5955,1.6028,1.6028,1.6028,1.6028,1.6028,1.6028,1.6028,1.6028,1.6028,1.6015,1.5868,1.5808,1.5896,1.685,1.6622,1.592,1.685,1.6622,1.5754,1.5439,1.4681,1.3854,1.3488,1.2721,1.1896,1.1896,0.0,0.0,0.0,0.0,0.9924,0.9583,0.8751,0.7988,0.7988,0.7988,0.7988,0.7988,0.8047,0.8064,0.802,0.7988,0.7988,0.7988,0.7988,0.0,0.7988,0.7988,0.803,0.8067,0.8074,0.8088,0.8125,0.8128,0.8128,0.8128,0.8128,0.8128,0.8128,0.8128,0.8128,0.8128,0.8128,0.8128,0.8128,0.0,0.0,0.0,0.0,0.0,0.0,0.0,0.0,0.0,0.0,0.0,0.0,0.0,0.0,0.0,0.0,0.0,0.0,0.0,0.0,0.0,0.0,0.0,0.0,0.0,0.0,0.0,0.0,0.0,1.5808,1.5808,0.0,0.0,0.0,0.0,1.5808,1.5855,1.5872,1.5808,1.5849,1.5872,1.5808,1.5808,1.5941,1.627,1.6277,1.6411,1.666,1.666,1.666,1.666,1.666,1.666,1.666,1.666,1.666,1.662,1.6035,1.5808,1.5808,1.5872,1.5855,1.5808,1.5872,1.5855,1.5635,1.4411,1.395,1.368,1.2406,1.1945,1.1896,1.1896,1.1896,0.0,0.0,1.0047,0.9706,0.8432,0.8038,0.7988,0.7988,0.7988,0.7988,0.7988,0.8153,0.8214,0.8044,0.7988,0.7988,0.7988,0.0,0.7988,0.7988,0.7988,0.8067,0.8267,0.8284,0.8335,0.8471,0.8485,0.8485,0.8485,0.8485,0.8485,0.8485,0.8485,0.8485,0.8485,0.8485,0.8485,0.8485,0.8352,0.0,0.0,0.0,0.0,0.0,0.0,0.0,0.0,0.0,0.0,0.0,0.0,0.0,0.0,0.0,0.0,0.0,0.0,0.0,0.0,0.0,0.0,0.0,0.0,0.0,0.0,0.0,0.0,1.5808,1.5808,0.0,1.5808,1.5808,1.5808,1.5808,1.5808,1.5808,1.5808,1.6012,1.6112,1.6112,1.6293,1.6446,1.6553,1.6553,1.6607,1.6707,1.6707,1.6707,1.6707,1.6707,1.6707,1.6707,1.6707,1.6707,1.6693,1.648,1.6393,1.6393,1.6393,1.5814,1.4979,1.501,1.437,1.3409,1.2967,1.2179,1.1161,0.9825,0.9386,0.9386,0.9386,0.9386,0.9311,0.9006,0.8913,0.8813,0.8427,0.8323,0.8323,0.8323,0.8323,0.8323,0.8323,0.8367,0.8417,0.8336,0.8323,0.8323,0.8323,0.8323,0.8323,0.8323,0.8323,0.8343,0.8423,0.8434,0.8451,0.8502,0.8509,0.8509,0.8509,0.8509,0.8509,0.8509,0.8509,0.8509,0.8509,0.8509,0.8509,0.8509,0.8457,0.8434,0.0,0.0,0.0,0.0,0.0,0.0,0.0,0.0,0.0,0.0,0.0,0.0,0.0,0.0,0.0,0.0,0.0,0.0,0.0,0.0,0.0,0.0,0.0,0.0,0.0,1.5808,1.5808,1.5808,1.5808,1.5808,1.5808,1.5808,1.5848,1.5972,1.5979,1.6019,1.6095,1.6313,1.6444,1.6444,1.6607,1.6754,1.6879,1.6954,1.7054,1.7135,1.7261,1.7308,1.7308,1.7308,1.7308,1.7308,1.7308,1.7308,1.7308,1.7308,1.6983,1.6464,1.6107,1.5368,1.4476,1.4013,1.3172,1.2203,1.1749,1.066,0.9338,0.8462,0.8162,0.8162,0.8162,0.8162,0.8186,0.8338,0.8366,0.8389,0.8485,0.8509,0.8509,0.8509,0.8509,0.8509,0.8509,0.8549,0.856,0.856,0.8543,0.8509,0.8509,0.8509,0.8509,0.8509,0.8509,0.8529,0.8554,0.856,0.8577,0.8632,0.8635,0.8635,0.8635,0.8635,0.8635,0.8635,0.8635,0.8635,0.8635,0.8635,0.8635,0.8635,0.8584,0.8533,0.8509,0.0,0.0,0.0,0.0,0.0,0.0,0.0,0.0,0.0,0.0,0.0,0.0,0.0,0.0,0.0,0.0,0.0,0.0,0.0,0.0,0.0,0.0,0.0,1.5808,1.5808,1.5808,1.5808,1.5808,1.5808,1.5821,1.5821,1.5941,1.629,1.631,1.6438,1.6693,1.6727,1.6734,1.6734,1.6754,1.6901,1.7239,1.7495,1.7762,1.8009,1.835,1.849,1.849,1.849,1.849,1.849,1.8463,1.8435,1.8435,1.8373,1.743,1.5931,1.492,1.4511,1.4327,1.2884,1.234,1.2098,1.0776,0.9541,0.8509,0.8509,0.8509,0.8509,0.8509,0.8509,0.8509,0.8512,0.8515,0.8515,0.8522,0.8522,0.8526,0.8529,0.8529,0.8532,0.8536,0.8625,0.873,0.873,0.8611,0.8532,0.8526,0.8522,0.8522,0.8522,0.8526,0.0,0.8706,0.8726,0.876,0.8909,0.8926,0.8923,0.8919,0.8919,0.8916,0.8912,0.8912,0.8912,0.8912,0.8912,0.8912,0.8912,0.8767,0.8645,0.8522,0.0,0.0,0.0,0.0,0.0,0.0,0.0,0.0,0.0,0.0,0.0,0.0,0.0,0.0,0.0,0.0,0.0,0.0,0.0,0.0,0.0,1.5808,1.5808,1.5808,1.5808,1.5808,1.5808,1.5808,1.5888,1.6126,1.6152,1.6273,1.6567,1.6587,1.662,1.67,1.7108,1.7341,1.7341,1.7769,1.8043,1.815,1.823,1.8283,1.837,1.845,1.849,1.849,1.849,1.849,1.8435,1.7257,1.677,1.6658,1.5513,1.4775,1.4445,1.5202,1.4159,1.2159,1.1644,1.0708,0.9656,0.9197,0.8793,0.8509,0.8509,0.8509,0.8509,0.8509,0.8509,0.8532,0.8615,0.8648,0.8672,0.8757,0.8787,0.8838,0.8971,0.8998,0.9026,0.9138,0.9196,0.9198,0.9198,0.9192,0.9066,0.8821,0.8787,0.8787,0.8787,0.8903,0.9012,0.9053,0.9155,0.9215,0.9256,0.9259,0.9215,0.9131,0.9121,0.9049,0.8919,0.8912,0.8912,0.8912,0.8912,0.8912,0.8912,0.8869,0.8828,0.0,0.0,0.0,0.0,0.0,0.0,0.0,0.0,0.0,0.0,0.0,0.0,0.0,0.0,0.0,0.0,0.0,0.0,0.0,0.0,0.0,0.0,1.5808,1.5848,1.5999,1.5881,1.5855,1.5999,1.6012,1.6132,1.6451,1.6478,1.6605,1.6892,1.7001,1.7128,1.7235,1.7709,1.799,1.799,1.8331,1.849,1.849,1.8611,1.8671,1.8677,1.8798,1.8886,1.8886,1.8886,1.8886,1.8801,1.7189,1.6493,1.6344,1.4753,1.3684,1.3133,0.0,0.0,0.0,0.0,0.9783,0.8977,0.8917,0.8886,0.8886,0.8886,0.8886,0.8886,0.8886,0.8886,0.8903,0.8967,0.8991,0.9011,0.9103,0.9095,0.9147,0.9257,0.9277,0.9301,0.939,0.941,0.941,0.941,0.941,0.0,0.9154,0.9095,0.9095,0.9095,0.9195,0.9042,0.832,0.8916,0.9146,0.8439,0.8968,0.9373,0.9284,0.9277,0.0,0.0,0.0,0.9095,0.9095,0.9095,0.0,0.0,0.0,0.7723,0.7066,0.6183,0.0,0.0,0.6815,0.6401,0.0,0.0,0.0,0.0,0.0,0.0,0.0,0.0,0.0,0.0,0.0,0.0,0.0,0.0,0.0,0.0,1.5835,1.59,1.6031,1.5825,1.5779,1.6066,1.6246,1.6384,1.6495,1.668,1.6927,1.728,1.7384,1.7609,1.8029,1.8033,0.0,0.0,0.0,1.8417,1.8591,1.8844,1.895,1.895,1.9267,1.9307,1.9127,1.9127,1.9039,1.8771,1.7149,1.6462,1.6339,1.4713,1.3232,1.1883,1.1449,1.1273,1.1113,0.9867,0.941,0.941,0.941,0.0,0.0,0.941,0.941,0.941,0.941,0.941,0.941,0.941,0.941,0.941,0.941,0.941,0.9413,0.943,0.9437,0.9441,0.9458,0.9432,0.9432,0.9432,0.9312,0.9163,0.9163,0.9136,0.9116,0.9116,0.8981,0.8344,0.6842,0.7973,0.8336,0.6832,0.8011,0.0,0.8878,0.8874,0.8868,0.8852,0.8852,0.8852,0.8852,0.8852,0.8145,0.6647,0.6618,0.5916,0.4513,0.4337,0.4249,0.4246,0.4413,0.4412,0.0,0.0,0.0,0.0,0.0,0.0,0.0,0.0,0.0,0.0,0.0,0.0,0.0,0.0,0.0,1.5808,1.6032,1.581,1.4685,1.4656,1.48,1.4905,1.5933,1.6275,1.5406,1.6607,1.7542,1.7822,1.6938,1.6975,1.8321,1.6255,1.6189,1.8753,1.7829,1.7913,1.9199,1.9281,1.9308,1.9308,1.9368,0.0,1.7472,1.7472,1.6768,1.5435,1.382,1.3138,1.2988,1.1378,1.0539,1.0252,1.0042,0.9893,0.978,0.9494,0.941,0.941,0.941,0.941,0.941,0.941,0.941,0.941,0.941,0.941,0.0,0.941,0.941,0.941,0.941,0.941,0.9412,0.9537,0.9564,0.9598,0.971,0.9737,0.9737,0.9737,0.8666,0.7782,0.7782,0.7565,0.738,0.738,0.6368,0.5497,0.5169,0.5497,0.5633,0.5329,0.5572,0.5726,0.5622,0.5616,0.5554,0.5453,0.5447,0.5447,0.5447,0.5447,0.5301,0.498,0.4951,0.4805,0.4483,0.3256,0.2641,0.267,0.3933,0.3834,0.0,0.0,0.0,0.0,0.0,0.0,0.0,0.0,0.0,0.0,0.0,1.5808,1.5808,0.0,1.6052,1.6052,1.5668,1.5189,1.4636,1.4037,1.3651,1.3702,1.4383,1.5004,1.5399,1.5571,1.6055,1.6983,1.5874,1.5494,1.6307,1.5125,1.5107,1.6698,1.6141,1.6556,1.8192,1.8192,1.8192,1.8192,1.8192,1.7397,1.5894,1.5894,1.5514,1.471,1.303,1.2296,1.217,1.0481,0.9792,0.9785,0.9714,0.9669,0.9602,0.9602,0.9602,0.9602,0.9602,0.9602,0.9602,0.9602,0.9602,0.9602,0.9602,0.9602,0.9602,0.9602,0.9602,0.9602,0.9602,0.9602,0.9622,0.9696,0.9687,0.9704,0.9775,0.9792,0.9576,0.8742,0.7942,0.7146,0.6291,0.5335,0.4982,0.5791,0.5258,0.4496,0.3708,0.4374,0.458,0.3783,0.4426,0.487,0.4803,0.4799,0.4783,0.4716,0.4712,0.4712,0.4712,0.4712,0.4323,0.3515,0.3485,0.3095,0.2255,0.1475,0.1084,0.1114,0.1895,0.185,0.0,0.0,0.0,0.0,0.0,0.0,0.0,0.0,1.5808,1.5808,1.5848,1.5888,1.5888,1.6159,1.6279,1.6003,1.5194,1.4504,1.4228,1.3218,1.2411,1.2159,1.2714,1.3612,1.4911,1.4301,1.4329,1.5643,1.4541,1.3942,1.4263,1.3877,1.3944,1.4574,1.4307,1.4917,1.656,1.656,1.6589,1.6605,1.6605,1.5834,1.4403,1.4403,1.4284,1.4006,1.2583,1.2003,1.1867,1.0477,0.991,0.991,0.991,0.991,0.9903,0.9812,0.9792,0.9792,0.9792,0.9792,0.9792,0.9792,0.9792,0.9792,0.9792,0.9792,0.9792,0.9792,0.9792,0.9792,0.9792,0.9792,0.9792,0.9792,0.9792,0.9792,0.9792,0.9542,0.8958,0.7667,0.6869,0.6014,0.4671,0.3076,0.2554,0.418,0.4149,0.3475,0.2186,0.3137,0.3445,0.2155,0.3168,0.3936,0.3936,0.3936,0.3936,0.3936,0.3936,0.3936,0.3936,0.3936,0.3353,0.2033,0.2002,0.1356,0.0,0.0,0.0,0.0,0.0,0.0,2.3091,2.2217,2.1025,1.9807,1.8588,1.7404,0.0,0.0,1.5808,1.5808,1.6039,1.625,1.625,1.646,1.6247,1.4997,1.4881,1.4103,1.1711,1.1423,1.104,0.9914,1.1945,1.3064,1.2084,1.3308,1.4215,1.4388,1.319,1.3046,1.4475,1.1874,1.1649,1.4515,1.3202,1.331,1.5028,1.5064,1.5105,1.5211,1.5211,1.4416,1.2921,1.2921,1.2161,1.0809,1.0608,1.0538,1.0534,1.0331,1.0229,1.0229,1.0229,1.0229,1.0195,0.992,0.9792,0.9792,0.9792,0.9792,0.9792,0.9792,0.9792,0.9792,0.9792,0.9792,0.9792,0.9792,0.9792,0.9792,0.9792,0.9792,0.9792,0.9792,0.9792,0.9792,0.9792,0.8681,0.7604,0.7421,0.5035,0.2984,0.28,0.1387,0.0833,0.2524,0.151,0.0494,0.0309,0.0432,0.0494,0.0309,0.0432,0.0555,0.0555,0.0555,0.0555,0.0555,0.0555,0.0555,0.0555,0.0555,0.0463,0.0278,0.0278,0.0185,0.0,0.0,0.0,0.0,0.0,0.0,2.1387,2.0652,1.9776,1.7824,1.696,1.6457,1.592,1.5941,1.6086,1.6086,1.6319,1.6526,1.6526,1.6792,1.6521,0.0,1.4382,1.3333,1.1393,1.0523,0.9945,0.9571,1.0525,1.1392,1.1749,1.1689,1.2035,1.2976,1.1661,1.111,1.1766,1.0539,1.0465,1.1894,1.126,1.1795,1.3571,1.3575,1.3616,1.3667,1.3667,1.2853,1.1411,1.1411,1.1066,1.0437,1.0437,1.0354,1.0312,1.0312,1.0312,1.0312,1.0312,1.0312,1.0284,1.0005,0.9923,0.991,0.9822,0.9792,0.9792,0.9792,0.9792,0.9792,0.9792,0.9792,0.9792,0.9792,0.9792,0.9792,0.9792,0.9792,0.9792,0.9792,0.9083,0.8394,0.8408,0.7117,0.5671,0.4717,0.3438,0.218,0.1203,0.0475,0.0253,0.095,0.0437,0.0,0.0,0.0,0.0,0.0,0.0,0.0,0.0,0.0,0.0,0.0,0.0,0.0,0.0,0.0,0.0,0.0,0.0,0.0,0.0,0.0,0.0,0.0,0.0,0.0,2.0463,1.9511,1.8565,1.6772,1.6062,1.5828,1.5908,1.6119,1.6317,1.6404,1.6652,1.6827,1.6827,1.7093,1.6711,1.4826,1.3858,1.2751,1.1008,0.9927,0.9403,0.9635,0.9666,1.0107,1.1278,1.044,1.027,1.1438,1.0452,0.9792,0.9792,0.9832,0.9903,0.9984,1.0059,1.0741,1.2087,1.2087,1.2115,1.2163,1.2163,1.1596,1.0555,1.0555,1.0555,1.0555,1.0555,1.0497,1.0402,1.0402,1.0402,1.0402,1.0402,1.0402,1.0382,1.0197,1.0116,1.0065,0.9988,0.9947,0.9947,0.9947,0.9947,0.9947,0.9947,0.9947,0.9947,0.9947,0.9947,0.9947,0.9947,0.9571,0.9196,0.9196,0.792,0.6698,0.6708,0.5399,0.3899,0.2726,0.2123,0.1417,0.0194,0.0,0.0,0.0,0.0,0.0,0.0,0.0,0.0,0.0,0.0,0.0,0.0,0.0,0.0,0.0,0.0,0.0,0.0,0.0,0.0,0.0,0.0,0.0,0.0,0.0,0.0,0.0,0.0,0.0,0.0,0.0,1.7731,1.7668,1.6716,1.5881,1.6217,1.629,1.6377,1.6633,1.6953,1.7186,1.7186,1.7401,1.6651,1.382,1.3419,1.2557,0.9838,0.9533,0.9649,0.9765,0.9785,0.9815,0.0,0.9819,0.9819,0.9879,0.9819,0.9792,0.9792,0.993,0.998,0.9987,1.0195,1.0373,1.0545,1.0581,1.0623,1.077,1.077,1.074,1.0681,1.0681,1.0681,1.0681,1.0681,1.0677,1.0707,1.0707,1.0707,1.0707,1.0707,1.0707,1.0654,1.0534,1.0392,1.0305,1.0301,1.0266,1.0266,1.0266,1.0266,1.0266,1.0266,1.0266,1.0266,1.0266,1.0266,1.0266,1.0266,0.8976,0.7659,0.7659,0.6279,0.4967,0.4971,0.3723,0.2569,0.2507,0.1192,0.0065,0.0,0.0,0.0,0.0,0.0,0.0,0.0,0.0,0.0,0.0,0.0,0.0,0.0,0.0,0.0,0.0,0.0,0.0,0.0,0.0,0.0,0.0,0.0,0.0,0.0,0.0,0.0,0.0,0.0,0.0,0.0,0.0,1.7505,1.6645,1.6109,1.5881,1.623,1.6444,1.664,1.6966,1.726,1.7468,1.7468,1.7541,1.6695,1.3877,1.347,1.2557,0.99,0.9578,0.9663,0.9771,0.9792,0.0,0.0,0.0,0.9792,0.9792,0.9886,0.994,0.994,1.0089,1.0246,1.0341,1.0392,1.049,1.0639,1.0643,1.067,1.0688,1.0688,1.0688,1.0688,1.0688,1.0688,1.0688,1.0688,1.0688,1.0688,1.0688,1.0688,1.0688,1.0688,1.0688,1.0681,1.0663,1.0612,1.0544,1.0348,1.0312,1.0312,1.0312,1.0312,1.0312,1.0312,1.0312,1.0312,1.0312,1.0312,1.0022,0.8826,0.8055,0.7282,0.6095,0.4526,0.3317,0.3318,0.2023,0.0852,0.0827,0.0398,0.0,0.0,0.0,0.0,0.0,0.0,0.0,0.0,0.0,0.0,0.0,0.0,0.0,0.0,0.0,0.0,0.0,0.0,0.0,0.0,0.0,0.0,0.0,0.0,0.0,0.0,0.0,0.0,0.0,0.0,0.0,0.0,1.7948,1.6826,1.5991,1.5888,1.6066,1.6359,1.6678,1.6973,1.7267,1.7481,1.7608,1.7608,1.7608,1.6886,1.4719,1.3914,1.2829,1.0763,1.0003,0.969,0.9781,0.9792,0.9792,0.0,0.0,0.9812,0.9866,0.9961,1.0042,1.0099,1.0273,1.0399,1.0487,1.0544,1.0619,1.0684,1.0688,1.0688,1.0688,1.0688,1.0688,1.0688,1.0688,1.0688,1.0688,1.0688,1.0688,1.0688,1.0688,1.0688,1.0688,1.0688,1.0688,1.0688,1.0688,1.0688,1.0694,1.0504,1.0436,1.0436,1.0436,1.0436,1.0436,1.0436,1.0436,1.0436,1.0436,0.9977,0.9224,0.8048,0.6809,0.5541,0.4402,0.284,0.1605,0.1621,0.0763,0.0,0.0,0.0,0.0,0.0,0.0,0.0,0.0,0.0,0.0,0.0,0.0,0.0,0.0,0.0,0.0,0.0,0.0,0.0,0.0,0.0,0.0,0.0,0.0,0.0,0.0,0.0,0.0,0.0,0.0,0.0,0.0,0.0,0.0,1.8002,1.6756,1.5808,1.5808,1.6052,1.6371,1.664,1.6959,1.7286,1.7548,1.7608,1.7608,0.0,0.0,1.7112,1.5972,1.4541,1.3203,1.2063,1.0681,0.9792,0.0,0.0,0.0,0.0,0.0,0.0,1.0018,1.0032,1.0099,1.0315,1.0426,1.0504,1.0504,1.0643,1.0688,1.0688,1.0688,1.0688,1.0688,1.0688,1.0688,1.0688,1.0688,1.0688,1.0688,1.0688,1.0688,1.0688,1.0688,1.0688,1.0688,1.0688,1.0688,1.0688,1.0688,1.0688,1.0688,1.0688,1.0688,1.0688,1.0688,1.0688,1.0688,1.0688,1.0651,1.0552,1.0552,0.9271,0.7831,0.7762,0.5225,0.2685,0.2585,0.1243,0.0,0.0,0.0,0.0,0.0,0.0,0.0,0.0,0.0,0.0,0.0,0.0,0.0,0.0,0.0,0.0,0.0,0.0,0.0,0.0,0.0,0.0,0.0,0.0,0.0,0.0,0.0,0.0,0.0,0.0,0.0,0.0,0.0,0.0,0.0,0.0,0.0,1.7777,1.6756,1.5808,1.5808,1.6052,1.6371,1.664,1.6959,1.7286,1.7548,1.7608,1.7608,0.0,0.0,0.0,1.4441,1.3008,0.0,1.0527,1.0037,0.0,0.9792,0.0,0.9792,0.9792,0.9893,0.0,1.0209,1.0222,1.0287,1.0429,1.0578,1.0663,1.0663,1.0667,1.0688,1.0688,1.0688,1.0688,1.0688,1.0688,1.0688,1.0688,1.0688,1.0688,1.0688,1.0688,1.0688,1.0688,1.0688,1.0688,1.0688,1.0688,1.0688,1.0688,1.0688,1.0688,1.0688,1.0688,1.0688,1.0688,1.0688,1.0688,1.0688,1.0688,0.9742,0.8701,0.8701,0.7431,0.5763,0.4391,0.3387,0.2351,0.1009,0.0336,0.0,0.0,0.0,0.0,0.0,0.0,0.0,0.0,0.0,0.0,0.0,0.0,0.0,0.0,0.0,0.0,0.0,0.0,0.0,0.0,0.0,0.0,0.0,0.0,0.0,0.0,0.0,0.0,0.0,0.0,0.0,0.0,0.0,0.0,0.0,0.0,0.0,1.7847,1.6756,1.5808,1.5808,1.6146,1.6506,1.6667,1.706,1.7408,1.7575,1.7608,1.7608,1.7608,1.6387,1.5258,0.0,0.0,0.0,1.091,1.024,0.9792,0.0,0.9792,0.0,0.9792,0.993,1.0082,1.0266,1.0337,1.0436,1.0585,1.0673,1.0688,1.0688,1.0688,1.0688,1.0688,1.0688,1.0688,1.0688,1.0688,1.0688,1.0688,1.0688,1.0688,1.0688,1.0688,1.0688,1.0688,1.0688,1.0688,1.0688,1.0688,1.0216,0.9507,0.9507,0.9039,0.8374,0.8374,0.8374,0.8504,0.9274,0.9507,0.9374,0.8607,0.7667,0.6862,0.6862,0.5596,0.3992,0.2953,0.2116,0.1243,0.0235,0.0,0.0,0.0,0.0,0.0,0.0,0.0,0.0,0.0,0.0,0.0,0.0,0.0,0.0,0.0,0.0,0.0,0.0,0.0,0.0,0.0,0.0,0.0,0.0,0.0,0.0,0.0,0.0,0.0,0.0,0.0,0.0,0.0,0.0,0.0,0.0,0.0,0.0,1.7986,1.6756,1.5808,1.5808,1.6248,1.6707,1.6707,1.7161,1.7608,1.7608,1.7608,1.7608,1.7608,1.6387,1.5468,1.5729,0.0,1.1574,1.1834,1.0676,0.9792,0.9792,0.9792,0.9792,0.9792,0.9947,1.0106,1.0301,1.0429,1.0578,1.0681,1.0688,1.0688,1.0688,1.0688,1.0688,1.0688,1.0688,1.0688,1.0688,1.0688,1.0688,1.0688,1.0688,1.0688,1.0688,1.0688,1.0688,1.0688,1.0688,1.0552,1.0349,1.0349,0.9238,0.7664,0.7664,0.6698,0.5397,0.5397,0.5397,0.5663,0.7165,0.7664,0.7362,0.5863,0.5228,0.5029,0.5029,0.3724,0.2351,0.2351,0.1176,0.0,0.0,0.0,0.0,0.0,0.0,0.0,0.0,0.0,0.0,0.0,0.0,0.0,0.0,0.0,0.0,0.0,0.0,0.0,0.0,0.0,0.0,0.0,0.0,0.0,0.0,0.0,0.0,0.0,0.0,0.0,0.0,0.0,0.0,0.0,0.0,0.0,0.0,0.0,0.0,1.7754,1.6756,1.5808,1.5808,1.6248,1.6707,1.6707,1.7161,0.0,0.0,1.7608,1.7608,1.7608,1.6387,1.5087,1.4117,1.257,1.1161,1.018,0.9895,0.9792,0.0,0.9792,0.9792,0.9792,1.0076,0.0,1.0312,1.0527,1.0694,1.0684,1.0688,1.0688,1.0688,1.0688,1.0688,1.0688,1.0688,1.0688,1.0688,1.0688,1.0688,1.0688,1.0688,1.0688,1.0688,1.0688,1.0688,1.0688,1.0688,0.9812,0.8468,0.8468,0.7398,0.5863,0.5863,0.5663,0.5397,0.5397,0.5397,0.5462,0.5763,0.5863,0.5797,0.5498,0.436,0.3154,0.3154,0.1881,0.0471,0.0471,0.0235,0.0,0.0,0.0,0.0,0.0,0.0,0.0,0.0,0.0,0.0,0.0,0.0,0.0,0.0,0.0,0.0,0.0,0.0,0.0,0.0,0.0,0.0,0.0,0.0,0.0,0.0,0.0,0.0,0.0,0.0,0.0,0.0,0.0,0.0,0.0,0.0,0.0,0.0,0.0,0.0,1.8818,1.7723,1.6622,1.5967,1.6248,1.6707,1.6707,0.0,0.0,0.0,1.7608,1.7608,1.7608,1.6387,1.4989,1.3706,1.2377,1.1062,0.9792,0.97,0.9792,0.9792,0.9792,0.9822,0.99,1.0144,1.0342,1.0385,1.0595,1.0688,1.0688,1.0688,1.0688,1.0688,1.0688,1.0688,1.0688,1.0688,1.0688,1.0688,1.0688,1.0688,1.0688,1.0688,1.0688,1.0688,1.0688,1.0688,1.0688,1.0688,1.018,0.9407,0.9407,0.7767,0.5397,0.5397,0.4193,0.2585,0.2585,0.2585,0.2585,0.2585,0.3221,0.3824,0.2887,0.1981,0.1311,0.1311,0.0673,0.0,0.0,0.0,0.0,0.0,0.0,0.0,0.0,0.0,0.0,0.0,0.0,0.0,0.0,0.0,0.0,0.0,0.0,0.0,0.0,0.0,0.0,0.0,0.0,0.0,0.0,0.0,0.0,0.0,0.0,0.0,0.0,0.0,0.0,0.0,0.0,0.0,0.0,0.0,0.0,0.0,0.0,0.0,2.0147,1.8818,1.7458,1.6457,1.6413,1.6627,1.6693,1.7114,0.0,1.7595,1.7608,1.7608,1.7608,1.6658,1.5434,0.0,1.2824,1.1504,1.0182,0.9887,0.9792,0.0,0.9792,0.0,0.9974,1.0188,0.0,1.048,1.0633,1.0688,1.0688,1.0688,1.0688,1.0688,1.0688,1.0688,1.0688,1.0688,1.0688,1.0688,1.0688,1.0688,1.0688,1.0688,1.0688,1.0688,1.0688,1.0688,1.0688,1.0688,1.025,0.9579,0.9579,0.74,0.426,0.426,0.245,0.0,0.0,0.0,0.0,0.0,0.0975,0.1847,0.0437,0.0,0.0,0.0,0.0,0.0,0.0,0.0,0.0,0.0,0.0,0.0,0.0,0.0,0.0,0.0,0.0,0.0,0.0,0.0,0.0,0.0,0.0,0.0,0.0,0.0,0.0,0.0,0.0,0.0,0.0,0.0,0.0,0.0,0.0,0.0,0.0,0.0,0.0,0.0,0.0,0.0,0.0,0.0,0.0,0.0,0.0,0.0,2.1159,1.9443,1.7668,1.7552,1.6922,1.6404,1.6647,0.0,1.732,1.7555,1.7608,1.7608,1.7608,1.7503,1.6909,0.0,0.0,1.2989,1.1536,1.0432,0.9792,0.9792,0.0,0.0,0.9974,1.0188,1.0369,1.048,1.0633,1.0688,1.0688,1.0688,1.0688,1.0688,1.0688,1.0688,1.0688,1.0688,1.0688,1.0688,1.0688,1.0688,1.0688,1.0688,1.0688,1.0688,1.0688,1.0688,1.0688,1.0688,0.8809,0.5897,0.5897,0.3689,0.0504,0.0504,0.0269,0.0,0.0,0.0,0.0,0.0,0.0101,0.0202,0.0034,0.0,0.0,0.0,0.0,0.0,0.0,0.0,0.0,0.0,0.0,0.0,0.0,0.0,0.0,0.0,0.0,0.0,0.0,0.0,0.0,0.0,0.0,0.0,0.0,0.0,0.0,0.0,0.0,0.0,0.0,0.0,0.0,0.0,0.0,0.0,0.0,0.0,0.0,0.0,0.0,0.0,0.0,0.0,0.0,0.0,0.0,0.0,2.0598,1.9519,1.8426,1.6943,1.6542,1.6567,1.668,0.0,1.7468,1.7582,1.7608,1.7608,1.7608,1.7608,1.6849,1.4502,1.3878,0.0,1.0545,0.9986,0.9792,0.9792,0.9792,0.0,0.0,0.0,1.0378,1.0612,1.0683,1.0688,1.0688,1.0688,1.0688,1.0688,1.0688,1.0688,1.0688,1.0688,1.0688,1.0688,1.0688,1.0688,1.0688,1.0688,1.0688,1.0688,1.0688,1.0688,1.0688,1.0688,0.9208,0.6965,0.6965,0.4792,0.1613,0.1613,0.0941,0.0,0.0,0.0,0.0,0.0,0.0,0.0,0.0,0.0,0.0,0.0,0.0,0.0,0.0,0.0,0.0,0.0,0.0,0.0,0.0,0.0,0.0,0.0,0.0,0.0,0.0,0.0,0.0,0.0,0.0,0.0,0.0,0.0,0.0,0.0,0.0,0.0,0.0,0.0,0.0,0.0,0.0,0.0,0.0,0.0,0.0,0.0,0.0,0.0,0.0,0.0,0.0,0.0,0.0,0.0,2.0576,1.9761,1.8993,1.6889,1.6398,1.6493,0.0,0.0,1.7375,1.7575,1.7608,1.7608,1.7608,1.7232,1.628,1.4261,1.3407,1.2294,1.0315,0.9862,0.9744,0.9785,0.0,0.9849,0.9974,1.0226,1.0446,1.0667,1.0688,1.0688,1.0688,1.0688,1.0688,1.0688,1.0688,1.0688,1.0688,1.0688,1.0688,1.0688,1.0688,1.0688,1.0688,1.0688,1.0688,1.0688,1.0688,1.0688,1.0688,1.0688,0.9341,0.7231,0.7231,0.5058,0.1914,0.1914,0.1109,0.0,0.0,0.0,0.0,0.0,0.0,0.0,0.0,0.0,0.0,0.0,0.0,0.0,0.0,0.0,0.0,0.0,0.0,0.0,0.0,0.0,0.0,0.0,0.0,0.0,0.0,0.0,0.0,0.0,0.0,0.0,0.0,0.0,0.0,0.0,0.0,0.0,0.0,0.0,0.0,0.0,0.0,0.0,0.0,0.0,0.0,0.0,0.0,0.0,0.0,0.0,0.0,0.0,0.0,0.0,2.1614,2.0418,1.92,1.7986,1.6739,1.5968,0.0,1.6707,1.6881,1.7488,1.7608,1.7608,1.7608,1.6419,1.5417,1.539,1.3085,0.0,1.1453,1.0409,0.9663,0.0,0.9792,0.9849,0.9974,1.0285,1.0555,1.0674,1.0688,1.0688,1.0688,1.0688,1.0688,1.0688,1.0688,1.0688,1.0688,1.0688,1.0688,1.0688,1.0688,1.0688,1.0688,1.0688,1.0688,1.0688,1.0688,1.0688,1.0688,1.0688,0.8607,0.5431,0.5431,0.3221,0.0034,0.0034,0.0,0.0,0.0,0.0,0.0,0.0,0.0,0.0,0.0,0.0,0.0,0.0,0.0,0.0,0.0,0.0,0.0,0.0,0.0,0.0,0.0,0.0,0.0,0.0,0.0,0.0,0.0,0.0,0.0,0.0,0.0,0.0,0.0,0.0,0.0,0.0,0.0,0.0,0.0,0.0,0.0,0.0,0.0,0.0,0.0,0.0,0.0,0.0,0.0,0.0,0.0,0.0,0.0,0.0,0.0,0.0,2.0629,1.9784,1.8993,1.6913,1.6266,1.6179,1.6391,1.6745,1.7112,1.73,1.7468,1.7608,1.7608,1.6387,1.5064,1.4126,1.2459,1.1017,0.0,0.0,0.0,0.9771,0.9792,0.9893,1.0181,1.0293,1.0453,1.0667,1.0688,1.0688,1.0688,1.0688,1.0688,1.0688,1.0688,1.0688,1.0688,1.0688,1.0688,1.0688,1.0688,1.0688,1.0688,1.0688,1.0688,1.0688,1.0688,1.0688,1.0585,0.9374,0.75,0.5263,0.4024,0.2082,0.0,0.0,0.0,0.0,0.0,0.0,0.0,0.0,0.0,0.0,0.0,0.0,0.0,0.0,0.0,0.0,0.0,0.0,0.0,0.0,0.0,0.0,0.0,0.0,0.0,0.0,0.0,0.0,0.0,0.0,0.0,0.0,0.0,0.0,0.0,0.0,0.0,0.0,0.0,0.0,0.0,0.0,0.0,0.0,0.0,0.0,0.0,0.0,0.0,0.0,0.0,0.0,0.0,0.0,0.0,0.0,0.0,0.0,0.0,1.9852,1.9016,1.703,1.6324,0.0,0.0,1.6665,1.704,1.7179,1.7408,1.7417,1.6876,1.5583,1.4153,1.2697,1.1308,1.0169,0.0,0.0,0.0,0.9768,0.9792,0.9941,1.0281,1.0312,1.0402,1.0664,1.0688,1.0688,1.0688,1.0688,1.0688,1.0688,1.0688,1.0688,1.0688,1.0688,1.0688,1.0688,1.0688,1.0688,1.0688,1.0688,1.0688,1.0651,0.9978,0.9676,0.0,0.7767,0.5962,0.4258,0.3154,0.1579,0.0,0.0,0.0,0.0,0.0,0.0,0.0,0.0,0.0,0.0,0.0,0.0,0.0,0.0,0.0,0.0,0.0,0.0,0.0,0.0,0.0,0.0,0.0,0.0,0.0,0.0,0.0,0.0,0.0,0.0,0.0,0.0,0.0,0.0,0.0,0.0,0.0,0.0,0.0,0.0,0.0,0.0,0.0,0.0,0.0,0.0,0.0,0.0,0.0,0.0,0.0,0.0,0.0,0.0,0.0,0.0,0.0,0.0,0.0,2.0486,1.9222,1.8002,1.6732,0.0,0.0,0.0,0.0,1.7112,1.7374,1.7127,1.5657,1.4261,1.2805,1.1351,0.986,0.9014,0.934,0.9427,0.0,0.0,0.9792,0.9937,1.0236,1.0305,1.0399,1.0683,1.0681,1.0688,1.0688,1.0688,1.0688,1.0688,1.0688,1.0688,1.0688,1.0688,1.0688,1.0688,1.0688,1.0688,1.0688,1.0688,1.0688,1.0621,0.8936,0.813,0.7864,0.6131,0.4325,0.2685,0.2551,0.1478,0.0,0.0,0.0,0.0,0.0,0.0,0.0,0.0,0.0,0.0,0.0,0.0,0.0,0.0,0.0,0.0,0.0,0.0,0.0,0.0,0.0,0.0,0.0,0.0,0.0,0.0,0.0,0.0,0.0,0.0,0.0,0.0,0.0,0.0,0.0,0.0,0.0,0.0,0.0,0.0,0.0,0.0,0.0,0.0,0.0,0.0,0.0,0.0,0.0,0.0,0.0,0.0,0.0,0.0,0.0,0.0,0.0,0.0,2.2743,0.0,1.9222,1.8002,1.6732,1.5821,0.0,0.0,0.0,0.0,0.0,0.0,0.0,1.4261,1.2805,1.1351,0.986,0.9014,0.934,0.9574,0.0,0.9781,0.9792,0.9863,1.0055,1.0212,1.0354,1.0531,1.0653,1.0688,1.0688,1.0688,1.0688,1.0688,1.0688,1.0688,1.0688,1.0688,1.0688,1.0688,1.0688,1.0688,1.0688,1.0688,1.0688,1.0688,1.0246,0.9274,0.7864,0.6131,0.4325,0.2551,0.1176,0.037,0.0,0.0,0.0,0.0,0.0,0.0,0.0,0.0,0.0,0.0,0.0,0.0,0.0,0.0,0.0,0.0,0.0,0.0,0.0,0.0,0.0,0.0,0.0,0.0,0.0,0.0,0.0,0.0,0.0,0.0,0.0,0.0,0.0,0.0,0.0,0.0,0.0,0.0,0.0,0.0,0.0,0.0,0.0,0.0,0.0,0.0,0.0,0.0,0.0,0.0,0.0,0.0,0.0,0.0,0.0,0.0,0.0,0.0,2.3091,2.1333,1.9337,1.8688,1.714,1.5808,0.0,0.0,0.0,0.0,0.0,0.0,0.0,0.0,1.2593,1.0429,0.9427,0.9014,0.934,0.0,0.9792,0.9792,0.9792,0.9849,0.9974,1.0096,1.0263,1.0477,1.0568,1.0646,1.0684,1.0688,1.0688,1.0688,1.0688,1.0688,1.0688,1.0688,1.0688,1.0688,1.0688,1.0688,1.0688,1.0688,1.0688,1.0621,0.8975,0.7702,0.6598,0.399,0.2351,0.1378,0.037,0.0,0.0,0.0,0.0,0.0,0.0,0.0,0.0,0.0,0.0,0.0,0.0,0.0,0.0,0.0,0.0,0.0,0.0,0.0,0.0,0.0,0.0,0.0,0.0,0.0,0.0,0.0,0.0,0.0,0.0,0.0,0.0,0.0,0.0,0.0,0.0,0.0,0.0,0.0,0.0,0.0,0.0,0.0,0.0,0.0,0.0,0.0,0.0,0.0,0.0,0.0,0.0,0.0,0.0,0.0,0.0,0.0,0.0,0.0,2.3091,2.1333,1.9497,1.9497,1.7638,1.5808,0.0,0.0,0.0,0.0,0.0,0.0,0.0,1.3064,0.0,0.0,0.0,0.0,0.9347,0.9635,0.9792,0.9792,0.9792,0.9842,0.9971,0.9974,1.0123,1.0405,1.0466,1.0548,1.0644,1.0674,1.0688,1.0688,1.0688,1.0688,1.0688,1.0688,1.0688,1.0688,1.0688,1.0688,1.0688,1.0688,1.0688,1.0518,0.7234,0.5629,0.513,0.178,0.0235,0.0,0.0,0.0,0.0,0.0,0.0,0.0,0.0,0.0,0.0,0.0,0.0,0.0,0.0,0.0,0.0,0.0,0.0,0.0,0.0,0.0,0.0,0.0,0.0,0.0,0.0,0.0,0.0,0.0,0.0,0.0,0.0,0.0,0.0,0.0,0.0,0.0,0.0,0.0,0.0,0.0,0.0,0.0,0.0,0.0,0.0,0.0,0.0,0.0,0.0,0.0,0.0,0.0,0.0,0.0,0.0,0.0,0.0,0.0,0.0,0.0,2.3091,2.1333,1.9497,1.9497,1.7638,1.5808,0.0,0.0,0.0,0.0,0.0,0.0,0.0,1.3064,1.2322,0.0,0.0,0.933,0.9403,0.9635,0.9792,0.9792,0.9792,0.9798,0.9822,0.9944,1.0007,1.0082,1.0351,1.0504,1.0524,1.0649,1.0688,1.0688,1.0688,1.0688,1.0688,1.0688,1.0688,1.0688,1.0688,1.0688,1.0688,1.0688,1.0688,1.0585,0.8501,0.6762,0.523,0.3154,0.1378,0.0,0.0,0.0,0.0,0.0,0.0,0.0,0.0,0.0,0.0,0.0,0.0,0.0,0.0,0.0,0.0,0.0,0.0,0.0,0.0,0.0,0.0,0.0,0.0,0.0,0.0,0.0,0.0,0.0,0.0,0.0,0.0,0.0,0.0,0.0,0.0,0.0,0.0,0.0,0.0,0.0,0.0,0.0,0.0,0.0,0.0,0.0,0.0,0.0,0.0,0.0,0.0,0.0,0.0,0.0,0.0,0.0,0.0,0.0,0.0,0.0,2.3091,2.1333,1.9497,1.9497,1.7638,1.5808,0.0,0.0,0.0,0.0,0.0,0.0,0.0,0.0,1.211,0.9361,0.0,0.941,0.941,0.9635,0.9792,0.9792,0.9792,0.9792,0.9792,0.9852,0.993,0.998,1.0143,1.0321,1.0483,1.0558,1.0633,1.0684,1.0688,1.0688,1.0688,1.0688,1.0688,1.0688,1.0688,1.0688,1.0688,1.0688,1.018,0.9138,0.7365,0.5596,0.3791,0.1981,0.074,0.0,0.0,0.0,0.0,0.0,0.0,0.0,0.0,0.0,0.0,0.0,0.0,0.0,0.0,0.0,0.0,0.0,0.0,0.0,0.0,0.0,0.0,0.0,0.0,0.0,0.0,0.0,0.0,0.0,0.0,0.0,0.0,0.0,0.0,0.0,0.0,0.0,0.0,0.0,0.0,0.0,0.0,0.0,0.0,0.0,0.0,0.0,0.0,0.0,0.0,0.0,0.0,0.0,0.0,0.0,0.0,0.0,0.0,0.0,0.0,0.0,2.3091,2.1333,1.9497,1.9497,1.7638,0.0,0.0,0.0,0.0,0.0,0.0,0.0,0.0,1.2039,0.0,0.9216,0.9188,0.941,0.941,0.9635,0.9792,0.9792,0.9792,0.9792,0.9792,0.9792,0.9839,0.9957,0.9998,1.0116,1.0378,1.0422,1.0493,1.0612,1.0616,1.0633,1.0666,1.0633,1.0683,1.0688,1.0688,1.0688,1.0688,1.0688,0.9709,0.7897,0.6164,0.436,0.2551,0.074,0.0,0.0,0.0,0.0,0.0,0.0,0.0,0.0,0.0,0.0,0.0,0.0,0.0,0.0,0.0,0.0,0.0,0.0,0.0,0.0,0.0,0.0,0.0,0.0,0.0,0.0,0.0,0.0,0.0,0.0,0.0,0.0,0.0,0.0,0.0,0.0,0.0,0.0,0.0,0.0,0.0,0.0,0.0,0.0,0.0,0.0,0.0,0.0,0.0,0.0,0.0,0.0,0.0,0.0,0.0,0.0,0.0,0.0,0.0,0.0,0.0,0.0,2.3091,2.1333,1.9497,1.9497,1.7638,0.0,1.5808,1.5808,0.0,1.5808,0.0,0.0,0.0,1.0625,0.9116,0.8937,0.9188,0.941,0.941,0.9635,0.9792,0.9792,0.9792,0.9792,0.9792,0.9792,0.9795,0.9805,0.9937,0.9997,1.0017,1.0219,1.0332,1.0346,1.0346,1.0375,1.0507,1.0507,1.0578,1.0688,1.0688,1.0688,1.0688,1.0688,0.9709,0.7897,0.6164,0.436,0.2551,0.074,0.0,0.0,0.0,0.0,0.0,0.0,0.0,0.0,0.0,0.0,0.0,0.0,0.0,0.0,0.0,0.0,0.0,0.0,0.0,0.0,0.0,0.0,0.0,0.0,0.0,0.0,0.0,0.0,0.0,0.0,0.0,0.0,0.0,0.0,0.0,0.0,0.0,0.0,0.0,0.0,0.0,0.0,0.0,0.0,0.0,0.0,0.0,0.0,0.0,0.0,0.0,0.0,0.0,0.0,0.0,0.0,0.0,0.0,0.0,0.0,0.0,0.0,2.2173,2.0764,1.9314,1.8572,1.7077,0.0,0.0,1.5808,1.5808,1.5808,1.4857,0.0,0.0,0.0,0.8801,0.8896,0.9106,0.9301,0.9396,0.9557,0.9694,0.9781,0.9792,0.9792,0.9792,0.9792,0.9792,0.9792,0.9846,0.9917,0.998,1.0072,1.0181,1.0308,1.0312,1.0307,1.0393,1.0393,1.0388,1.0449,1.0633,1.0688,1.0651,0.9543,0.8066,0.6297,0.4492,0.2685,0.0975,0.0269,0.0,0.0,0.0,0.0,0.0,0.0,0.0,0.0,0.0,0.0,0.0,0.0,0.0,0.0,0.0,0.0,0.0,0.0,0.0,0.0,0.0,0.0,0.0,0.0,0.0,0.0,0.0,0.0,0.0,0.0,0.0,0.0,0.0,0.0,0.0,0.0,0.0,0.0,0.0,0.0,0.0,0.0,0.0,0.0,0.0,0.0,0.0,0.0,0.0,0.0,0.0,0.0,0.0,0.0,0.0,0.0,0.0,0.0,0.0,0.0,0.0,0.0,2.1525,2.0147,1.8726,0.0,0.0,0.0,1.5808,1.5808,1.5683,1.5289,1.391,0.0,1.0165,0.0,0.0,0.8892,0.9059,0.9233,0.939,0.9513,0.9663,0.9771,0.9792,0.9792,0.9792,0.9792,0.9792,0.9792,0.9792,0.9836,0.994,0.9947,0.9994,1.0131,1.0134,1.0158,1.0209,1.0209,1.0232,1.0315,0.9958,1.0048,1.0516,0.8728,0.6984,0.5195,0.3449,0.168,0.0,0.0,0.0,0.0,0.0,0.0,0.0,0.0,0.0,0.0,0.0,0.0,0.0,0.0,0.0,0.0,0.0,0.0,0.0,0.0,0.0,0.0,0.0,0.0,0.0,0.0,0.0,0.0,0.0,0.0,0.0,0.0,0.0,0.0,0.0,0.0,0.0,0.0,0.0,0.0,0.0,0.0,0.0,0.0,0.0,0.0,0.0,0.0,0.0,0.0,0.0,0.0,0.0,0.0,0.0,0.0,0.0,0.0,0.0,0.0,0.0,0.0,0.0,0.0,2.1293,1.9542,1.7707,0.0,0.0,0.0,1.5808,1.5808,1.5439,1.4148,1.2009,1.0002,0.8741,0.873,0.0,0.8912,0.9059,0.9233,0.9386,0.951,0.9659,0.9771,0.9792,0.9792,0.9792,0.9792,0.9792,0.9792,0.9792,0.9792,0.9792,0.9792,0.9792,0.9792,0.9792,0.9863,0.9984,0.9984,1.0092,1.0245,0.86,0.8663,1.022,0.8536,0.6786,0.499,0.3366,0.1646,0.0,0.0,0.0,0.0,0.0,0.0,0.0,0.0,0.0,0.0,0.0,0.0,0.0,0.0,0.0,0.0,0.0,0.0,0.0,0.0,0.0,0.0,0.0,0.0,0.0,0.0,0.0,0.0,0.0,0.0,0.0,0.0,0.0,0.0,0.0,0.0,0.0,0.0,0.0,0.0,0.0,0.0,0.0,0.0,0.0,0.0,0.0,0.0,0.0,0.0,0.0,0.0,0.0,0.0,0.0,0.0,0.0,0.0,0.0,0.0,0.0,0.0,0.0,0.0,2.0494,1.9511,0.0,1.6803,0.0,0.0,0.0,1.5808,0.0,0.0,1.1391,1.0002,0.8741,0.873,0.8912,0.8912,0.8946,0.9052,0.923,0.9383,0.9503,0.9652,0.9731,0.9792,0.9792,0.9792,0.9792,0.9792,0.9792,0.9792,0.9792,0.9792,0.9792,0.9792,0.9792,0.9812,0.9856,0.9859,0.9321,0.824,0.7743,0.7892,0.8443,0.5545,0.3912,0.3299,0.1563,0.049,0.0,0.0,0.0,0.0,0.0,0.0,0.0,0.0,0.0,0.0,0.0,0.0,0.0,0.0,0.0,0.0,0.0,0.0,0.0,0.0,0.0,0.0,0.0,0.0,0.0,0.0,0.0,0.0,0.0,0.0,0.0,0.0,0.0,0.0,0.0,0.0,0.0,0.0,0.0,0.0,0.0,0.0,0.0,0.0,0.0,0.0,0.0,0.0,0.0,0.0,0.0,0.0,0.0,0.0,0.0,0.0,0.0,0.0,0.0,0.0,0.0,0.0,0.0,0.0,1.9322,1.8426,0.0,1.6173,1.5808,1.5808,1.5808,0.0,0.0,0.0,1.0658,0.9338,0.8626,0.8682,0.8841,0.8899,0.8912,0.896,0.9162,0.926,0.94,0.9585,0.9686,0.9727,0.9785,0.9792,0.9792,0.9792,0.9792,0.9792,0.9792,0.9792,0.9792,0.9792,0.9792,0.9481,0.8867,0.8836,0.8036,0.6414,0.577,0.5548,0.5617,0.3559,0.2614,0.252,0.0772,0.0,0.0,0.0,0.0,0.0,0.0,0.0,0.0,0.0,0.0,0.0,0.0,0.0,0.0,0.0,0.0,0.0,0.0,0.0,0.0,0.0,0.0,0.0,0.0,0.0,0.0,0.0,0.0,0.0,0.0,0.0,0.0,0.0,0.0,0.0,0.0,0.0,0.0,0.0,0.0,0.0,0.0,0.0,0.0,0.0,0.0,0.0,0.0,0.0,0.0,0.0,0.0,0.0,0.0,0.0,0.0,0.0,0.0,0.0,0.0,0.0,0.0,0.0,0.0,0.0,1.8187,1.6943,0.0,1.5832,1.5808,0.0,1.5808,1.3788,1.1896,1.1896,0.0,0.8342,0.8481,0.8608,0.8733,0.8885,0.8912,0.8956,0.9145,0.92,0.9284,0.9534,0.9591,0.9659,0.9758,0.9785,0.9792,0.9792,0.9792,0.9792,0.9792,0.9792,0.9792,0.9792,0.9667,0.8867,0.7421,0.7238,0.6322,0.4671,0.3199,0.2432,0.228,0.228,0.2263,0.2202,0.0671,0.0,0.0,0.0,0.0,0.0,0.0,0.0,0.0,0.0,0.0,0.0,0.0,0.0,0.0,0.0,0.0,0.0,0.0,0.0,0.0,0.0,0.0,0.0,0.0,0.0,0.0,0.0,0.0,0.0,0.0,0.0,0.0,0.0,0.0,0.0,0.0,0.0,0.0,0.0,0.0,0.0,0.0,0.0,0.0,0.0,0.0,0.0,0.0,0.0,0.0,0.0,0.0,0.0,0.0,0.0,0.0,0.0,0.0,0.0,0.0,0.0,0.0,0.0,0.0,0.0,1.9451,1.8226,0.0,0.0,1.5808,1.5808,1.5808,1.3788,1.1896,1.1896,0.9975,0.8342,0.8481,0.8608,0.8733,0.8885,0.8912,0.8923,0.8953,0.9111,0.9234,0.9271,0.9462,0.9622,0.9652,0.9724,0.9792,0.9792,0.9792,0.9792,0.9792,0.9792,0.9792,0.9792,0.8587,0.7759,0.739,0.6108,0.461,0.3016,0.2677,0.1817,0.0524,0.0526,0.0527,0.0527,0.0156,0.0,0.0,0.0,0.0,0.0,0.0,0.0,0.0,0.0,0.0,0.0,0.0,0.0,0.0,0.0,0.0,0.0,0.0,0.0,0.0,0.0,0.0,0.0,0.0,0.0,0.0,0.0,0.0,0.0,0.0,0.0,0.0,0.0,0.0,0.0,0.0,0.0,0.0,0.0,0.0,0.0,0.0,0.0,0.0,0.0,0.0,0.0,0.0,0.0,0.0,0.0,0.0,0.0,0.0,0.0,0.0,0.0,0.0,0.0,0.0,0.0,0.0,0.0,0.0,0.0,1.8979,0.0,0.0,1.5967,0.0,1.5635,1.5021,1.3349,1.1731,1.1121,0.9486,0.8204,0.8379,0.8503,0.8652,0.8777,0.8865,0.8912,0.8912,0.9001,0.9104,0.92,0.9322,0.9449,0.9595,0.9676,0.9717,0.9785,0.9792,0.9792,0.9792,0.9079,0.865,0.865,0.7057,0.5831,0.5066,0.4179,0.2923,0.1295,0.1295,0.0833,0.0,0.0,0.0,0.0,0.0,0.0,0.0,0.0,0.0,0.0,0.0,0.0,0.0,0.0,0.0,0.0,0.0,0.0,0.0,0.0,0.0,0.0,0.0,0.0,0.0,0.0,0.0,0.0,0.0,0.0,0.0,0.0,0.0,0.0,0.0,0.0,0.0,0.0,0.0,0.0,0.0,0.0,0.0,0.0,0.0,0.0,0.0,0.0,0.0,0.0,0.0,0.0,0.0,0.0,0.0,0.0,0.0,0.0,0.0,0.0,0.0,0.0,0.0,0.0,0.0,0.0,0.0,0.0,0.0,0.0,1.8342,0.0,1.5808,1.5808,1.5808,0.0,1.4459,1.3011,1.1604,1.0558,0.9093,0.8064,0.8267,0.8393,0.8529,0.8682,0.8791,0.8882,0.8906,0.8912,0.8956,0.9128,0.9165,0.9281,0.9507,0.9554,0.9629,0.9744,0.9754,0.964,0.939,0.8127,0.7268,0.6963,0.5343,0.3844,0.2524,0.2217,0.1387,0.0,0.0,0.0,0.0,0.0,0.0,0.0,0.0,0.0,0.0,0.0,0.0,0.0,0.0,0.0,0.0,0.0,0.0,0.0,0.0,0.0,0.0,0.0,0.0,0.0,0.0,0.0,0.0,0.0,0.0,0.0,0.0,0.0,0.0,0.0,0.0,0.0,0.0,0.0,0.0,0.0,0.0,0.0,0.0,0.0,0.0,0.0,0.0,0.0,0.0,0.0,0.0,0.0,0.0,0.0,0.0,0.0,0.0,0.0,0.0,0.0,0.0,0.0,0.0,0.0,0.0,0.0,0.0,0.0,0.0,0.0,0.0,0.0,0.0,0.0,1.5808,0.0,1.5808,1.5754,0.0,0.0,1.1848,0.0,0.9702,0.8064,0.8267,0.8311,0.8413,0.8665,0.8726,0.876,0.8892,0.8912,0.8919,0.8936,0.9107,0.9224,0.9237,0.9362,0.9473,0.9629,0.9639,0.9083,0.7784,0.7512,0.6719,0.5284,0.366,0.2708,0.2494,0.1048,0.0216,0.0,0.0,0.0,0.0,0.0,0.0,0.0,0.0,0.0,0.0,0.0,0.0,0.0,0.0,0.0,0.0,0.0,0.0,0.0,0.0,0.0,0.0,0.0,0.0,0.0,0.0,0.0,0.0,0.0,0.0,0.0,0.0,0.0,0.0,0.0,0.0,0.0,0.0,0.0,0.0,0.0,0.0,0.0,0.0,0.0,0.0,0.0,0.0,0.0,0.0,0.0,0.0,0.0,0.0,0.0,0.0,0.0,0.0,0.0,0.0,0.0,0.0,0.0,0.0,0.0,0.0,0.0,0.0,0.0,0.0,0.0,0.0,0.0,1.9001,1.7163,1.5808,0.0,1.5808,1.5611,1.4902,1.3253,1.1702,1.0974,0.9312,0.8037,0.813,0.8211,0.8338,0.8468,0.8604,0.8733,0.8774,0.8855,0.8912,0.8912,0.8967,0.9062,0.9204,0.9243,0.9345,0.9469,0.9483,0.882,0.7322,0.639,0.5182,0.3613,0.1962,0.111,0.111,0.037,0.0,0.0,0.0,0.0,0.0,0.0,0.0,0.0,0.0,0.0,0.0,0.0,0.0,0.0,0.0,0.0,0.0,0.0,0.0,0.0,0.0,0.0,0.0,0.0,0.0,0.0,0.0,0.0,0.0,0.0,0.0,0.0,0.0,0.0,0.0,0.0,0.0,0.0,0.0,0.0,0.0,0.0,0.0,0.0,0.0,0.0,0.0,0.0,0.0,0.0,0.0,0.0,0.0,0.0,0.0,0.0,0.0,0.0,0.0,0.0,0.0,0.0,0.0,0.0,0.0,0.0,0.0,0.0,0.0,0.0,0.0,0.0,0.0,0.0,0.0,0.0,1.5808,1.5808,1.5808,1.5564,0.0,0.0,1.1629,1.0681,0.9167,0.7988,0.7988,0.8133,0.825,0.8291,0.8455,0.8625,0.8699,0.8781,0.8869,0.8906,0.8912,0.8953,0.9117,0.9128,0.9016,0.8785,0.8765,0.7933,0.6035,0.4802,0.3434,0.1914,0.0666,0.0,0.0,0.0,0.0,0.0,0.0,0.0,0.0,0.0,0.0,0.0,0.0,0.0,0.0,0.0,0.0,0.0,0.0,0.0,0.0,0.0,0.0,0.0,0.0,0.0,0.0,0.0,0.0,0.0,0.0,0.0,0.0,0.0,0.0,0.0,0.0,0.0,0.0,0.0,0.0,0.0,0.0,0.0,0.0,0.0,0.0,0.0,0.0,0.0,0.0,0.0,0.0,0.0,0.0,0.0,0.0,0.0,0.0,0.0,0.0,0.0,0.0,0.0,0.0,0.0,0.0,0.0,0.0,0.0,0.0,0.0,0.0,0.0,0.0,0.0,0.0,0.0,0.0,1.7646,0.0,1.5808,1.5808,1.5778,0.0,0.0,1.1872,1.1799,0.9776,0.7988,0.7988,0.7995,0.8074,0.8274,0.8308,0.8417,0.8672,0.8716,0.8747,0.8892,0.8912,0.8916,0.8923,0.8923,0.8388,0.7119,0.7041,0.5764,0.2903,0.2673,0.1853,0.0177,0.0059,0.0,0.0,0.0,0.0,0.0,0.0,0.0,0.0,0.0,0.0,0.0,0.0,0.0,0.0,0.0,0.0,0.0,0.0,0.0,0.0,0.0,0.0,0.0,0.0,0.0,0.0,0.0,0.0,0.0,0.0,0.0,0.0,0.0,0.0,0.0,0.0,0.0,0.0,0.0,0.0,0.0,0.0,0.0,0.0,0.0,0.0,0.0,0.0,0.0,0.0,0.0,0.0,0.0,0.0,0.0,0.0,0.0,0.0,0.0,0.0,0.0,0.0,0.0,0.0,0.0,0.0,0.0,0.0,0.0,0.0,0.0,0.0,0.0,0.0,0.0,0.0,0.0,0.0,0.0,0.0,1.5808,1.5808,1.5588,1.4776,1.318,1.1677,1.0852,0.9262,0.7988,0.7988,0.7988,0.8033,0.8088,0.8208,0.8332,0.844,0.8506,0.8621,0.8747,0.8767,0.8804,0.8902,0.8912,0.8708,0.8221,0.7321,0.5903,0.3896,0.2845,0.1591,0.0058,0.0,0.0,0.0,0.0,0.0,0.0,0.0,0.0,0.0,0.0,0.0,0.0,0.0,0.0,0.0,0.0,0.0,0.0,0.0,0.0,0.0,0.0,0.0,0.0,0.0,0.0,0.0,0.0,0.0,0.0,0.0,0.0,0.0,0.0,0.0,0.0,0.0,0.0,0.0,0.0,0.0,0.0,0.0,0.0,0.0,0.0,0.0,0.0,0.0,0.0,0.0,0.0,0.0,0.0,0.0,0.0,0.0,0.0,0.0,0.0,0.0,0.0,0.0,0.0,0.0,0.0,0.0,0.0,0.0,0.0,0.0,0.0,0.0,0.0,0.0,0.0,0.0,0.0,1.9001,0.0,0.0,0.0,1.5808,1.5462,1.419,1.2861,1.1536,1.0268,0.8924,0.7988,0.7988,0.7988,0.7988,0.7988,0.8101,0.8211,0.8287,0.8376,0.8492,0.8615,0.8632,0.8696,0.8821,0.8835,0.8436,0.7482,0.6505,0.5083,0.3103,0.2007,0.1025,0.0029,0.0,0.0,0.0,0.0,0.0,0.0,0.0,0.0,0.0,0.0,0.0,0.0,0.0,0.0,0.0,0.0,0.0,0.0,0.0,0.0,0.0,0.0,0.0,0.0,0.0,0.0,0.0,0.0,0.0,0.0,0.0,0.0,0.0,0.0,0.0,0.0,0.0,0.0,0.0,0.0,0.0,0.0,0.0,0.0,0.0,0.0,0.0,0.0,0.0,0.0,0.0,0.0,0.0,0.0,0.0,0.0,0.0,0.0,0.0,0.0,0.0,0.0,0.0,0.0,0.0,0.0,0.0,0.0,0.0,0.0,0.0,0.0,0.0,0.0,0.0,0.0,0.0,0.0,0.0,0.0,0.0,0.0,0.0,0.0,1.419,1.2861,1.1536,1.0268,0.8924,0.7988,0.7988,0.7988,0.7988,0.7988,0.7988,0.8067,0.8267,0.8287,0.8342,0.8485,0.8502,0.8537,0.8689,0.8703,0.753,0.4767,0.4522,0.3185,0.0224,0.0028,0.0,0.0,0.0,0.0,0.0,0.0,0.0,0.0,0.0,0.0,0.0,0.0,0.0,0.0,0.0,0.0,0.0,0.0,0.0,0.0,0.0,0.0,0.0,0.0,0.0,0.0,0.0,0.0,0.0,0.0,0.0,0.0,0.0,0.0,0.0,0.0,0.0,0.0,0.0,0.0,0.0,0.0,0.0,0.0,0.0,0.0,0.0,0.0,0.0,0.0,0.0,0.0,0.0,0.0,0.0,0.0,0.0,0.0,0.0,0.0,0.0,0.0,0.0,0.0,0.0,0.0,0.0,0.0,0.0,0.0,0.0,0.0,0.0,0.0,0.0,0.0,0.0,0.0,0.0,0.0,1.78,0.0,0.0,0.0,0.0,0.0,1.419,1.2861,1.1536,1.0268,0.8924,0.7988,0.7988,0.7988,0.7988,0.7988,0.7988,0.803,0.8074,0.8077,0.816,0.8335,0.8355,0.8413,0.853,0.8547,0.7825,0.6077,0.4906,0.3503,0.1677,0.0588,0.0,0.0,0.0,0.0,0.0,0.0,0.0,0.0,0.0,0.0,0.0,0.0,0.0,0.0,0.0,0.0,0.0,0.0,0.0,0.0,0.0,0.0,0.0,0.0,0.0,0.0,0.0,0.0,0.0,0.0,0.0,0.0,0.0,0.0,0.0,0.0,0.0,0.0,0.0,0.0,0.0,0.0,0.0,0.0,0.0,0.0,0.0,0.0,0.0,0.0,0.0,0.0,0.0,0.0,0.0,0.0,0.0,0.0,0.0,0.0,0.0,0.0,0.0,0.0,0.0,0.0,0.0,0.0,0.0,0.0,0.0,0.0,0.0,0.0,0.0,0.0,0.0,0.0,0.0,0.0,0.0,0.0,0.0,0.0,0.0,0.0,1.347,1.2455,1.1385,0.9534,0.8552,0.7988,0.7988,0.7988,0.7988,0.7988,0.7988,0.7988,0.7988,0.7988,0.8047,0.8163,0.8174,0.8231,0.8406,0.842,0.7608,0.5699,0.4711,0.3339,0.1384,0.0472,0.0,0.0,0.0,0.0,0.0,0.0,0.0,0.0,0.0,0.0,0.0,0.0,0.0,0.0,0.0,0.0,0.0,0.0,0.0,0.0,0.0,0.0,0.0,0.0,0.0,0.0,0.0,0.0,0.0,0.0,0.0,0.0,0.0,0.0,0.0,0.0,0.0,0.0,0.0,0.0,0.0,0.0,0.0,0.0,0.0,0.0,0.0,0.0,0.0,0.0,0.0,0.0,0.0,0.0,0.0,0.0,0.0,0.0,0.0,0.0,0.0,0.0,0.0,0.0,0.0,0.0,0.0,0.0,0.0,0.0,0.0,0.0,0.0,0.0,0.0,0.0,0.0,0.0,0.0,0.0,0.0,0.0,0.0,0.0,0.0,0.0,1.2866,1.2212,1.1458,0.9139,0.8432,0.8209,0.8209,0.8113,0.7988,0.7988,0.7988,0.7988,0.7988,0.7988,0.7988,0.7988,0.7988,0.8067,0.8257,0.827,0.7133,0.4383,0.3895,0.2648,0.0136,0.0,0.0,0.0,0.0,0.0,0.0,0.0,0.0,0.0,0.0,0.0,0.0,0.0,0.0,0.0,0.0,0.0,0.0,0.0,0.0,0.0,0.0,0.0,0.0,0.0,0.0,0.0,0.0,0.0,0.0,0.0,0.0,0.0,0.0,0.0,0.0,0.0,0.0,0.0,0.0,0.0,0.0,0.0,0.0,0.0,0.0,0.0,0.0,0.0,0.0,0.0,0.0,0.0,0.0,0.0,0.0,0.0,0.0,0.0,0.0,0.0,0.0,0.0,0.0,0.0,0.0,0.0,0.0,0.0,0.0,0.0,0.0,0.0,0.0,0.0,0.0,0.0,0.0,0.0,0.0,0.0,0.0,0.0,0.0,0.0,0.0,0.0,1.5146,1.4244,1.3368,1.2856,1.1063,0.9608,0.9608,0.8726,0.7988,0.7988,0.7988,0.7988,0.7988,0.7988,0.7988,0.7988,0.7988,0.8027,0.8057,0.806,0.6945,0.4248,0.203,0.0587,0.0027,0.0,0.0,0.0,0.0,0.0,0.0,0.0,0.0,0.0,0.0,0.0,0.0,0.0,0.0,0.0,0.0,0.0,0.0,0.0,0.0,0.0,0.0,0.0,0.0,0.0,0.0,0.0,0.0,0.0,0.0,0.0,0.0,0.0,0.0,0.0,0.0,0.0,0.0,0.0,0.0,0.0,0.0,0.0,0.0,0.0,0.0,0.0,0.0,0.0,0.0,0.0,0.0,0.0,0.0,0.0,0.0,0.0,0.0,0.0,0.0,0.0,0.0,0.0,0.0,0.0,0.0,0.0,0.0,0.0,0.0,0.0,0.0,0.0,0.0,0.0,0.0,0.0,0.0,0.0,0.0,0.0,0.0,0.0,0.0,1.5808,0.0,0.0,0.0,1.4364,1.371,1.303,1.1867,1.095,1.095,1.0411,0.9727,0.9093,0.8994,0.8775,0.8088,0.7988,0.7988,0.7988,0.7988,0.7988,0.7988,0.7988,0.6879,0.4197,0.2135,0.0703,0.0026,0.0,0.0,0.0,0.0,0.0,0.0,0.0,0.0,0.0,0.0,0.0,0.0,0.0,0.0,0.0,0.0,0.0,0.0,0.0,0.0,0.0,0.0,0.0,0.0,0.0,0.0,0.0,0.0,0.0,0.0,0.0,0.0,0.0,0.0,0.0,0.0,0.0,0.0,0.0,0.0,0.0,0.0,0.0,0.0,0.0,0.0,0.0,0.0,0.0,0.0,0.0,0.0,0.0,0.0,0.0,0.0,0.0,0.0,0.0,0.0,0.0,0.0,0.0,0.0,0.0,0.0,0.0,0.0,0.0,0.0,0.0,0.0,0.0,0.0,0.0,0.0,0.0,0.0,0.0,0.0,0.0,0.0,0.0,0.0,0.0,0.0,1.5534,0.0,0.0,0.0,1.2866,1.2455,1.2285,1.2285,1.2067,1.1468,1.0167,0.9976,0.9522,0.8146,0.7996,0.7988,0.7988,0.7988,0.7988,0.7988,0.7761,0.6728,0.4543,0.2916,0.1521,0.0438,0.0129,0.0,0.0,0.0,0.0,0.0,0.0,0.0,0.0,0.0,0.0,0.0,0.0,0.0,0.0,0.0,0.0,0.0,0.0,0.0,0.0,0.0,0.0,0.0,0.0,0.0,0.0,0.0,0.0,0.0,0.0,0.0,0.0,0.0,0.0,0.0,0.0,0.0,0.0,0.0,0.0,0.0,0.0,0.0,0.0,0.0,0.0,0.0,0.0,0.0,0.0,0.0,0.0,0.0,0.0,0.0,0.0,0.0,0.0,0.0,0.0,0.0,0.0,0.0,0.0,0.0,0.0,0.0,0.0,0.0,0.0,0.0,0.0,0.0,0.0,0.0,0.0,0.0,0.0,0.0,0.0,0.0,0.0,0.0,0.0,1.5808,0.0,0.0,0.0,1.5534,1.5391,0.0,1.3656,1.3656,0.0,0.0,1.0062,0.9912,0.9477,0.8025,0.7929,0.7988,0.7988,0.7988,0.7988,0.7988,0.6933,0.6104,0.5802,0.3417,0.1939,0.1792,0.0658,0.0,0.0,0.0,0.0,0.0,0.0,0.0,0.0,0.0,0.0,0.0,0.0,0.0,0.0,0.0,0.0,0.0,0.0,0.0,0.0,0.0,0.0,0.0,0.0,0.0,0.0,0.0,0.0,0.0,0.0,0.0,0.0,0.0,0.0,0.0,0.0,0.0,0.0,0.0,0.0,0.0,0.0,0.0,0.0,0.0,0.0,0.0,0.0,0.0,0.0,0.0,0.0,0.0,0.0,0.0,0.0,0.0,0.0,0.0,0.0,0.0,0.0,0.0,0.0,0.0,0.0,0.0,0.0,0.0,0.0,0.0,0.0,0.0,0.0,0.0,0.0,0.0,0.0,0.0,0.0,0.0,0.0,0.0,0.0,0.0,0.0,1.5808,0.0,1.5808,0.0,0.0,0.0,0.0,0.0,0.0,0.0,1.106,1.036,0.822,0.7973,0.7988,0.7988,0.7988,0.7988,0.7988,0.7487,0.6503,0.4945,0.3792,0.2489,0.0932,0.0303,0.0,0.0,0.0,0.0,0.0,0.0,0.0,0.0,0.0,0.0,0.0,0.0,0.0,0.0,0.0,0.0,0.0,0.0,0.0,0.0,0.0,0.0,0.0,0.0,0.0,0.0,0.0,0.0,0.0,0.0,0.0,0.0,0.0,0.0,0.0,0.0,0.0,0.0,0.0,0.0,0.0,0.0,0.0,0.0,0.0,0.0,0.0,0.0,0.0,0.0,0.0,0.0,0.0,0.0,0.0,0.0,0.0,0.0,0.0,0.0,0.0,0.0,0.0,0.0,0.0,0.0,0.0,0.0,0.0,0.0,0.0,0.0,0.0,0.0,0.0,0.0,0.0,0.0,0.0,0.0,1.5808,0.0,0.0,0.0,0.0,0.0,0.0,0.0,0.0,0.0,1.5808,0.0,0.0,0.0,0.0,0.0,0.0,1.0589,0.8276,0.7989,0.7988,0.7988,0.7988,0.7988,0.7988,0.7988,0.703,0.4718,0.4216,0.299,0.0681,0.0202,0.0,0.0,0.0,0.0,0.0,0.0,0.0,0.0,0.0,0.0,0.0,0.0,0.0,0.0,0.0,0.0,0.0,0.0,0.0,0.0,0.0,0.0,0.0,0.0,0.0,0.0,0.0,0.0,0.0,0.0,0.0,0.0,0.0,0.0,0.0,0.0,0.0,0.0,0.0,0.0,0.0,0.0,0.0,0.0,0.0,0.0,0.0,0.0,0.0,0.0,0.0,0.0,0.0,0.0,0.0,0.0,0.0,0.0,0.0,0.0,0.0,0.0,0.0,0.0,0.0,0.0,0.0,0.0,0.0,0.0,0.0,0.0,0.0,0.0,0.0,0.0,0.0,0.0,0.0,0.0,1.5808,1.5808,1.5808,1.5808,1.5808,1.5808,1.5808,1.5808,1.5808,0.0,0.0,0.0,0.0,0.0,0.0,0.0,0.0,0.0,0.0,0.7922,0.7988,0.7988,0.7988,0.7988,0.7988,0.7988,0.7437,0.6029,0.4745,0.3391,0.2013,0.0706,0.0,0.0,0.0,0.0,0.0,0.0,0.0,0.0,0.0,0.0,0.0,0.0,0.0,0.0,0.0,0.0,0.0,0.0,0.0,0.0,0.0,0.0,0.0,0.0,0.0,0.0,0.0,0.0,0.0,0.0,0.0,0.0,0.0,0.0,0.0,0.0,0.0,0.0,0.0,0.0,0.0,0.0,0.0,0.0,0.0,0.0,0.0,0.0,0.0,0.0,0.0,0.0,0.0,0.0,0.0,0.0,0.0,0.0,0.0,0.0,0.0,0.0,0.0,0.0,0.0,0.0,0.0,0.0,0.0,0.0,0.0,0.0,0.0,0.0,0.0,0.0,0.0,0.0,0.0,0.0,1.4776,1.4531,1.4531,1.4531,1.4531,1.4752,1.5611,1.5808,1.5808,1.5808,0.0,0.0,0.0,0.0,0.0,0.0,0.0,0.0,0.0,0.0,0.7988,0.7988,0.7988,0.7988,0.7988,0.7988,0.708,0.4845,0.4268,0.3015,0.0807,0.0252,0.0,0.0,0.0,0.0,0.0,0.0,0.0,0.0,0.0,0.0,0.0,0.0,0.0,0.0,0.0,0.0,0.0,0.0,0.0,0.0,0.0,0.0,0.0,0.0,0.0,0.0,0.0,0.0,0.0,0.0,0.0,0.0,0.0,0.0,0.0,0.0,0.0,0.0,0.0,0.0,0.0,0.0,0.0,0.0,0.0,0.0,0.0,0.0,0.0,0.0,0.0,0.0,0.0,0.0,0.0,0.0,0.0,0.0,0.0,0.0,0.0,0.0,0.0,0.0,0.0,0.0,0.0,0.0,0.0,0.0,0.0,0.0,0.0,0.0,0.0,0.0,0.0,0.0,0.0,0.0,1.4118,1.356,1.3199,1.3199,1.3199,1.3542,1.483,1.5123,1.5123,1.5123,1.5123,0.0,0.0,0.0,0.0,0.0,0.0,0.0,0.0,0.7988,0.7988,0.7988,0.7988,0.7988,0.7988,0.7562,0.6376,0.4166,0.3565,0.2314,0.0126,0.0,0.0,0.0,0.0,0.0,0.0,0.0,0.0,0.0,0.0,0.0,0.0,0.0,0.0,0.0,0.0,0.0,0.0,0.0,0.0,-0.0053,-0.0528,-0.072,-0.0651,-0.0166,0.0,-0.0084,-0.0588,-0.0784,-0.0868,-0.1428,-0.1232,-0.0898,-0.1446,-0.0857,-0.0115,-0.0644,-0.0415,0.0,0.0,0.0,0.0,0.0,0.0,0.0,0.0,0.0,0.0,0.0,0.0,0.0,0.0,0.0,0.0,0.0,0.0,0.0,0.0,0.0,0.0,0.0,0.0,0.0,0.0,0.0,0.0,0.0,0.0,0.0,0.0,0.0,0.0,0.0,0.0,0.0,0.0,0.0,0.0,0.0,0.0,0.0]},{"header":{"parameterUnit":"m.s-1","parameterCategory":1,"la1":30.6,"la2":29.2853,"lo1":-89.7004,"lo2":-87.6739,"dy":0.0162,"dx":0.0183,"nx":112,"ny":82,"refTime":"2023-04-03T06:00:00:Z","depth":0,"parameterNumber":3,"parameterNumberName":"V-component_of_WINDS"},"data":[0.0,0.0,0.0,0.0,0.0,0.0,0.0,0.0,0.0,0.0,0.0,0.0,0.0,0.0,0.0,0.0,0.0,0.0,0.0,0.0,0.0,0.0,0.0,0.0,0.0,0.0,0.0,0.0,0.0,0.0,0.0,0.0,0.0,0.0,0.0,0.0,0.0,0.0,0.0,0.0,0.0,0.0,0.0,0.0,0.0,0.0,0.0,0.0,0.0,0.0,0.0,0.0,0.0,0.0,0.0,0.0,0.0,0.0,0.0,0.0,0.0,0.0,0.0,0.0,0.0,0.0,0.0,0.0,0.0,0.0,0.0,0.0,0.0,0.0,0.0,0.0,0.0,0.0,0.0,0.0,0.0,0.0,0.0,0.0,0.0,0.0,0.0,0.0,0.0,0.0,4.0298,4.0665,4.0704,4.0762,4.09,4.09,4.09,4.09,0.0,0.0,0.0,0.0,0.0,0.0,0.0,0.0,0.0,0.0,0.0,0.0,0.0,0.0,0.0,0.0,0.0,0.0,0.0,0.0,0.0,0.0,0.0,0.0,0.0,0.0,0.0,0.0,0.0,0.0,0.0,0.0,0.0,0.0,0.0,0.0,0.0,0.0,0.0,0.0,0.0,0.0,0.0,0.0,0.0,0.0,0.0,0.0,0.0,0.0,0.0,0.0,0.0,0.0,0.0,0.0,0.0,0.0,0.0,0.0,0.0,0.0,0.0,0.0,0.0,0.0,0.0,0.0,0.0,0.0,0.0,0.0,0.0,0.0,0.0,0.0,0.0,0.0,0.0,0.0,0.0,0.0,0.0,0.0,0.0,0.0,0.0,0.0,0.0,0.0,0.0,0.0,0.0,0.0,0.0,0.0,0.0,0.0,0.0,0.0,0.0,0.0,0.0,0.0,4.0745,4.1523,4.16,4.1889,4.2643,4.2701,4.2701,4.2701,0.0,0.0,0.0,0.0,0.0,0.0,0.0,0.0,0.0,0.0,0.0,0.0,0.0,0.0,0.0,0.0,0.0,0.0,0.0,0.0,0.0,0.0,0.0,0.0,0.0,0.0,0.0,0.0,0.0,0.0,0.0,0.0,0.0,0.0,0.0,0.0,0.0,0.0,0.0,0.0,0.0,0.0,0.0,0.0,0.0,0.0,0.0,0.0,0.0,0.0,0.0,0.0,0.0,0.0,0.0,0.0,0.0,0.0,0.0,0.0,0.0,0.0,0.0,0.0,0.0,0.0,0.0,0.0,0.0,0.0,0.0,0.0,0.0,0.0,0.0,0.0,0.0,0.0,0.0,0.0,0.0,0.0,0.0,0.0,0.0,0.0,0.0,0.0,0.0,0.0,0.0,0.0,0.0,0.0,0.0,0.0,0.0,0.0,0.0,0.0,0.0,0.0,0.0,4.1543,4.2066,4.2466,4.2504,4.2662,4.3066,4.3104,4.3104,4.3104,4.2354,0.0,0.0,0.0,0.0,0.0,0.0,0.0,0.0,0.0,0.0,0.0,0.0,0.0,0.0,0.0,0.0,0.0,0.0,0.0,0.0,0.0,0.0,0.0,0.0,0.0,0.0,0.0,0.0,0.0,0.0,0.0,0.0,0.0,0.0,0.0,0.0,0.0,0.0,0.0,0.0,0.0,0.0,0.0,0.0,0.0,0.0,0.0,0.0,0.0,0.0,0.0,0.0,0.0,0.0,0.0,0.0,0.0,0.0,0.0,0.0,0.0,0.0,0.0,0.0,0.0,0.0,0.0,0.0,0.0,0.0,0.0,0.0,0.0,0.0,0.0,0.0,0.0,0.0,0.0,0.0,0.0,0.0,0.0,0.0,0.0,0.0,0.0,0.0,0.0,0.0,0.0,0.0,0.0,0.0,0.0,0.0,0.0,0.0,0.0,0.0,0.0,0.0,4.2701,4.3162,4.3355,4.3374,4.347,4.3662,4.3682,4.3682,4.3682,4.3682,0.0,0.0,0.0,0.0,0.0,0.0,0.0,0.0,0.0,0.0,0.0,0.0,0.0,0.0,0.0,0.0,0.0,0.0,0.0,0.0,0.0,0.0,0.0,0.0,0.0,0.0,0.0,0.0,0.0,0.0,0.0,0.0,0.0,0.0,0.0,0.0,0.0,0.0,0.0,0.0,0.0,0.0,0.0,0.0,0.0,0.0,0.0,0.0,0.0,0.0,0.0,0.0,0.0,0.0,0.0,0.0,0.0,0.0,0.0,0.0,0.0,0.0,0.0,0.0,0.0,0.0,0.0,0.0,0.0,0.0,0.0,0.0,0.0,0.0,0.0,0.0,0.0,0.0,0.0,0.0,0.0,0.0,0.0,0.0,0.0,0.0,0.0,0.0,0.0,0.0,0.0,0.0,0.0,0.0,0.0,0.0,0.0,0.0,0.0,0.0,0.0,0.0,4.3066,4.3393,4.4143,4.422,4.4532,4.5359,4.5417,4.5417,4.5417,4.5417,0.0,0.0,0.0,0.0,0.0,0.0,0.0,0.0,0.0,0.0,0.0,0.0,0.0,0.0,0.0,0.0,0.0,0.0,0.0,0.0,0.0,0.0,0.0,0.0,0.0,0.0,0.0,0.0,0.0,0.0,0.0,0.0,0.0,0.0,0.0,0.0,0.0,0.0,0.0,0.0,0.0,0.0,0.0,0.0,0.0,0.0,0.0,0.0,0.0,0.0,0.0,0.0,0.0,0.0,0.0,0.0,0.0,0.0,0.0,0.0,0.0,0.0,0.0,0.0,0.0,0.0,0.0,0.0,0.0,0.0,0.0,0.0,0.0,0.0,0.0,0.0,0.0,0.0,0.0,0.0,0.0,0.0,0.0,0.0,0.0,0.0,0.0,0.0,0.0,0.0,0.0,0.0,0.0,0.0,0.0,0.0,0.0,0.0,0.0,0.0,0.0,0.0,4.4321,4.4763,4.5071,4.5109,4.5244,4.5575,4.5594,4.5594,4.5594,0.0,0.0,0.0,0.0,0.0,0.0,0.0,0.0,0.0,0.0,0.0,0.0,0.0,0.0,0.0,0.0,0.0,0.0,0.0,0.0,0.0,0.0,0.0,0.0,0.0,0.0,0.0,0.0,0.0,0.0,0.0,0.0,0.0,0.0,0.0,0.0,0.0,0.0,0.0,0.0,0.0,0.0,0.0,0.0,0.0,0.0,0.0,0.0,0.0,0.0,0.0,0.0,0.0,0.0,0.0,0.0,0.0,0.0,0.0,0.0,0.0,0.0,0.0,0.0,0.0,0.0,0.0,0.0,0.0,0.0,0.0,0.0,0.0,0.0,0.0,0.0,0.0,0.0,0.0,0.0,0.0,0.0,0.0,0.0,0.0,0.0,0.0,0.0,0.0,0.0,0.0,0.0,0.0,0.0,0.0,0.0,0.0,0.0,0.0,0.0,0.0,0.0,4.4705,4.5225,4.5594,4.5594,4.5594,4.5594,4.5594,4.5594,4.5594,4.5594,0.0,0.0,0.0,0.0,0.0,0.0,0.0,0.0,0.0,0.0,0.0,0.0,0.0,0.0,0.0,0.0,0.0,0.0,0.0,0.0,0.0,0.0,0.0,0.0,0.0,0.0,0.0,0.0,0.0,0.0,0.0,0.0,0.0,0.0,0.0,0.0,0.0,0.0,0.0,0.0,0.0,0.0,0.0,0.0,0.0,0.0,0.0,0.0,0.0,0.0,0.0,0.0,0.0,0.0,0.0,0.0,0.0,0.0,0.0,0.0,0.0,0.0,0.0,0.0,0.0,0.0,0.0,0.0,0.0,0.0,0.0,0.0,0.0,0.0,0.0,0.0,0.0,0.0,0.0,0.0,0.0,0.0,0.0,0.0,0.0,0.0,0.0,0.0,0.0,0.0,0.0,0.0,0.0,0.0,0.0,0.0,0.0,0.0,0.0,0.0,0.0,0.0,4.5594,4.5594,4.5594,4.5594,4.5594,4.5594,4.5594,4.5594,4.5594,0.0,0.0,0.0,0.0,0.0,0.0,0.0,0.0,0.0,0.0,0.0,0.0,0.0,0.0,0.0,0.0,0.0,0.0,0.0,0.0,0.0,0.0,0.0,0.0,0.0,0.0,0.0,0.0,0.0,0.0,0.0,0.0,0.0,0.0,0.0,0.0,0.0,0.0,0.0,0.0,0.0,0.0,0.0,0.0,0.0,0.0,0.0,0.0,0.0,0.0,0.0,0.0,0.0,0.0,0.0,0.0,0.0,0.0,0.0,0.0,0.0,0.0,0.0,0.0,0.0,0.0,0.0,0.0,0.0,0.0,0.0,0.0,0.0,0.0,0.0,0.0,0.0,0.0,0.0,0.0,0.0,0.0,0.0,0.0,0.0,0.0,0.0,0.0,0.0,0.0,0.0,0.0,0.0,0.0,0.0,0.0,0.0,0.0,0.0,0.0,0.0,0.0,0.0,4.5594,4.5594,4.5594,4.5594,4.5594,4.5594,4.5594,4.5594,4.5594,4.5594,0.0,0.0,0.0,0.0,0.0,0.0,0.0,0.0,0.0,0.0,0.0,0.0,0.0,0.0,0.0,0.0,0.0,0.0,0.0,0.0,0.0,0.0,0.0,0.0,0.0,0.0,0.0,0.0,0.0,0.0,0.0,0.0,0.0,0.0,0.0,0.0,0.0,0.0,0.0,0.0,0.0,0.0,0.0,0.0,0.0,0.0,0.0,0.0,0.0,0.0,0.0,0.0,0.0,0.0,0.0,0.0,0.0,0.0,0.0,0.0,0.0,0.0,0.0,0.0,0.0,0.0,0.0,0.0,0.0,0.0,0.0,0.0,0.0,0.0,0.0,0.0,0.0,0.0,0.0,0.0,0.0,0.0,0.0,0.0,0.0,0.0,0.0,0.0,0.0,0.0,0.0,0.0,0.0,0.0,0.0,0.0,0.0,0.0,0.0,0.0,0.0,0.0,4.5594,4.5594,4.5594,4.5594,4.5594,4.5594,4.5594,4.5594,4.5594,4.5594,0.0,0.0,0.0,0.0,0.0,0.0,0.0,0.0,0.0,0.0,0.0,0.0,0.0,0.0,0.0,0.0,0.0,0.0,0.0,0.0,0.0,0.0,0.0,0.0,0.0,0.0,0.0,0.0,0.0,0.0,0.0,0.0,0.0,0.0,0.0,0.0,0.0,0.0,0.0,0.0,0.0,0.0,0.0,0.0,0.0,0.0,0.0,0.0,0.0,0.0,0.0,0.0,0.0,0.0,0.0,0.0,0.0,0.0,0.0,0.0,0.0,0.0,0.0,0.0,0.0,0.0,0.0,0.0,0.0,0.0,0.0,0.0,0.0,0.0,0.0,0.0,0.0,0.0,0.0,0.0,0.0,0.0,0.0,0.0,0.0,0.0,0.0,0.0,0.0,0.0,0.0,0.0,0.0,0.0,0.0,0.0,0.0,0.0,0.0,0.0,0.0,0.0,4.5594,4.5594,4.5594,4.5594,4.5594,4.5594,4.5594,4.5594,4.5594,4.5594,0.0,0.0,0.0,0.0,0.0,0.0,0.0,0.0,0.0,0.0,0.0,0.0,0.0,0.0,0.0,0.0,0.0,0.0,0.0,0.0,0.0,0.0,0.0,0.0,0.0,0.0,0.0,0.0,0.0,0.0,0.0,0.0,0.0,0.0,0.0,0.0,0.0,0.0,0.0,0.0,0.0,0.0,0.0,0.0,0.0,0.0,0.0,0.0,0.0,0.0,0.0,0.0,0.0,0.0,0.0,0.0,0.0,0.0,0.0,0.0,4.0948,4.032,0.0,0.0,0.0,0.0,0.0,0.0,0.0,0.0,0.0,0.0,0.0,0.0,0.0,0.0,0.0,0.0,0.0,0.0,0.0,0.0,0.0,0.0,0.0,0.0,0.0,0.0,0.0,0.0,0.0,0.0,0.0,0.0,0.0,0.0,0.0,0.0,0.0,0.0,0.0,0.0,4.5594,4.5594,4.5594,4.5594,4.5594,4.5594,4.5594,4.5594,4.5594,4.5594,4.5594,0.0,0.0,0.0,0.0,0.0,0.0,0.0,0.0,0.0,0.0,0.0,0.0,0.0,0.0,0.0,0.0,0.0,0.0,0.0,0.0,0.0,0.0,0.0,0.0,0.0,0.0,0.0,0.0,0.0,0.0,0.0,0.0,0.0,0.0,0.0,0.0,0.0,0.0,0.0,0.0,0.0,0.0,0.0,0.0,0.0,0.0,0.0,0.0,0.0,0.0,0.0,0.0,0.0,0.0,0.0,0.0,0.0,0.0,0.0,4.1856,4.1501,0.0,0.0,0.0,0.0,0.0,0.0,0.0,0.0,0.0,0.0,0.0,0.0,0.0,0.0,0.0,0.0,0.0,0.0,0.0,0.0,0.0,0.0,0.0,0.0,0.0,0.0,0.0,0.0,0.0,0.0,0.0,0.0,0.0,0.0,0.0,0.0,0.0,0.0,0.0,0.0,4.5594,4.5594,4.5594,4.5594,4.5594,4.5594,4.5594,4.5594,4.5594,4.5594,4.5594,0.0,0.0,0.0,0.0,0.0,0.0,0.0,0.0,0.0,0.0,0.0,0.0,0.0,0.0,0.0,0.0,0.0,0.0,0.0,0.0,0.0,0.0,0.0,0.0,0.0,0.0,0.0,0.0,0.0,0.0,0.0,0.0,0.0,0.0,0.0,0.0,0.0,0.0,0.0,0.0,0.0,0.0,0.0,0.0,0.0,0.0,0.0,0.0,0.0,0.0,0.0,0.0,0.0,4.2052,4.2103,4.2103,4.2103,4.2364,4.2799,4.2314,4.2332,4.2655,4.2162,0.0,0.0,0.0,0.0,0.0,0.0,0.0,0.0,0.0,0.0,0.0,0.0,0.0,0.0,0.0,0.0,0.0,0.0,0.0,0.0,0.0,0.0,4.5191,4.5191,4.5405,4.5517,4.5243,0.0,0.0,0.0,0.0,0.0,0.0,0.0,0.0,0.0,0.0,0.0,4.5594,4.5594,4.5594,4.5594,4.5594,4.5594,4.5594,4.5594,4.5594,4.5594,4.5594,4.5594,0.0,0.0,0.0,0.0,0.0,0.0,0.0,0.0,0.0,0.0,0.0,0.0,0.0,0.0,0.0,0.0,0.0,0.0,0.0,0.0,0.0,0.0,0.0,0.0,0.0,0.0,0.0,0.0,0.0,0.0,0.0,0.0,4.224,4.2424,0.0,0.0,0.0,0.0,0.0,0.0,0.0,0.0,0.0,0.0,0.0,0.0,0.0,4.181,4.181,4.2322,4.2586,4.2596,4.3041,4.3286,4.3286,4.3286,4.3321,4.3392,4.3312,0.0,4.2684,4.2616,0.0,0.0,0.0,0.0,0.0,0.0,0.0,0.0,0.0,0.0,0.0,0.0,0.0,0.0,0.0,0.0,0.0,0.0,0.0,0.0,0.0,0.0,4.5527,4.5527,4.5568,4.5586,4.5531,4.5527,4.5555,4.5586,4.5594,4.5594,0.0,0.0,0.0,0.0,0.0,0.0,4.5594,4.5594,4.5594,4.5594,4.5594,4.5594,4.5594,4.5594,4.5594,4.5594,4.5594,4.5594,4.5594,4.5594,0.0,0.0,0.0,0.0,0.0,0.0,0.0,0.0,0.0,0.0,0.0,0.0,0.0,0.0,0.0,0.0,0.0,0.0,0.0,0.0,0.0,0.0,0.0,0.0,0.0,0.0,0.0,0.0,0.0,4.278,4.316,4.316,4.3366,4.341,0.0,0.0,0.0,0.0,0.0,0.0,0.0,0.0,0.0,4.2753,4.2762,4.2762,4.2762,4.3014,4.316,4.316,4.3392,4.3506,4.3506,4.3506,4.3506,4.3506,4.3506,4.3375,4.316,4.316,4.2995,4.2734,0.0,0.0,0.0,0.0,4.2501,4.2791,4.306,4.3275,4.3461,4.3697,0.0,0.0,0.0,0.0,0.0,0.0,0.0,4.4914,4.5063,4.5347,4.5594,4.5594,4.5594,4.5594,4.5594,4.5594,4.5594,4.5594,4.5594,4.5594,4.5594,4.5594,0.0,0.0,0.0,4.5594,4.5594,4.5594,4.5594,4.5594,4.5594,4.5594,4.5594,4.5594,4.5594,4.5594,4.5594,4.5594,4.5594,4.5594,4.5594,0.0,0.0,0.0,0.0,0.0,0.0,0.0,0.0,0.0,0.0,0.0,0.0,0.0,0.0,0.0,0.0,0.0,0.0,0.0,0.0,0.0,0.0,0.0,0.0,0.0,0.0,0.0,0.0,4.3241,4.3506,4.3506,4.3506,4.3506,0.0,0.0,0.0,0.0,0.0,0.0,4.347,4.3133,4.3096,4.3497,4.3506,4.3598,4.3818,4.3818,4.391,4.4112,4.4112,4.4112,4.4112,4.4112,4.4112,4.4112,4.4112,4.4112,4.4075,4.3671,4.3506,4.3453,4.305,4.316,4.3444,4.305,4.316,4.3505,4.3597,4.3796,4.4024,4.4117,4.4364,4.4593,4.4593,0.0,0.0,0.0,0.0,4.5113,4.5206,4.5415,4.5594,4.5594,4.5594,4.5594,4.5594,4.5782,4.5879,4.5629,4.5594,4.5594,4.5594,4.5594,0.0,4.5594,4.5594,4.5686,4.5898,4.5936,4.6013,4.6225,4.6244,4.6244,4.6244,4.6244,4.6244,4.6244,4.6244,4.6244,4.6244,4.6244,4.6244,4.6244,0.0,0.0,0.0,0.0,0.0,0.0,0.0,0.0,0.0,0.0,0.0,0.0,0.0,0.0,0.0,0.0,0.0,0.0,0.0,0.0,0.0,0.0,0.0,0.0,0.0,0.0,0.0,0.0,0.0,4.3506,4.3506,0.0,0.0,0.0,0.0,4.3506,4.3489,4.3462,4.3506,4.347,4.3462,4.3506,4.3506,4.3873,4.4626,4.4645,4.5012,4.5773,4.5773,4.5773,4.5773,4.5773,4.5773,4.5773,4.5773,4.5773,4.5663,4.413,4.3506,4.3506,4.3462,4.3489,4.3506,4.3462,4.3489,4.3548,4.3865,4.3993,4.4058,4.4453,4.458,4.4593,4.4593,4.4593,0.0,0.0,4.5085,4.518,4.5495,4.5586,4.5594,4.5594,4.5594,4.5594,4.5594,4.624,4.6586,4.5763,4.5594,4.5594,4.5594,0.0,4.5594,4.5594,4.5594,4.5898,4.6735,4.6831,4.712,4.7889,4.7966,4.7966,4.7966,4.7966,4.7966,4.7966,4.7966,4.7966,4.7966,4.7966,4.7966,4.7966,4.7216,0.0,0.0,0.0,0.0,0.0,0.0,0.0,0.0,0.0,0.0,0.0,0.0,0.0,0.0,0.0,0.0,0.0,0.0,0.0,0.0,0.0,0.0,0.0,0.0,0.0,0.0,0.0,0.0,4.3506,4.3506,0.0,4.3506,4.3506,4.3506,4.3506,4.3506,4.3506,4.3506,4.3993,4.4268,4.4268,4.4764,4.5186,4.548,4.548,4.5626,4.5902,4.5902,4.5902,4.5902,4.5902,4.5902,4.5902,4.5902,4.5902,4.5865,4.5278,4.5039,4.5039,4.5039,4.5204,4.5426,4.5436,4.5233,4.4998,4.5127,4.4962,4.4762,4.5134,4.5248,4.5248,4.5248,4.5248,4.5383,4.6061,4.6258,4.6417,4.7044,4.7201,4.7201,4.7201,4.7201,4.7201,4.7201,4.7451,4.7582,4.7278,4.7201,4.7201,4.7201,4.7201,4.7201,4.7201,4.7201,4.7317,4.762,4.7678,4.7774,4.8062,4.8101,4.8101,4.8101,4.8101,4.8101,4.8101,4.8101,4.8101,4.8101,4.8101,4.8101,4.8101,4.7812,4.7678,0.0,0.0,0.0,0.0,0.0,0.0,0.0,0.0,0.0,0.0,0.0,0.0,0.0,0.0,0.0,0.0,0.0,0.0,0.0,0.0,0.0,0.0,0.0,0.0,0.0,4.3506,4.3506,4.3506,4.3506,4.3506,4.3506,4.3506,4.3616,4.3883,4.3901,4.4011,4.4295,4.4819,4.5104,4.5104,4.5626,4.603,4.6296,4.6581,4.6856,4.7159,4.7425,4.7553,4.7553,4.7553,4.7553,4.7553,4.7553,4.7553,4.7553,4.7553,4.7629,4.7646,4.6529,4.6264,4.6531,4.6652,4.651,4.6249,4.6367,4.6288,4.6155,4.6363,4.6436,4.6436,4.6436,4.6436,4.6571,4.7139,4.7293,4.7428,4.7966,4.8101,4.8101,4.8101,4.8101,4.8101,4.8101,4.8332,4.8548,4.8548,4.8293,4.8101,4.8101,4.8101,4.8101,4.8101,4.8101,4.8216,4.8509,4.8548,4.8644,4.8952,4.8971,4.8971,4.8971,4.8971,4.8971,4.8971,4.8971,4.8971,4.8971,4.8971,4.8971,4.8971,4.8682,4.8394,4.8101,0.0,0.0,0.0,0.0,0.0,0.0,0.0,0.0,0.0,0.0,0.0,0.0,0.0,0.0,0.0,0.0,0.0,0.0,0.0,0.0,0.0,0.0,0.0,4.3506,4.3506,4.3506,4.3506,4.3506,4.3506,4.3543,4.3543,4.3873,4.4681,4.4737,4.5085,4.5865,4.5957,4.5975,4.5975,4.603,4.6434,4.7204,4.7984,4.8802,4.9647,5.0417,5.0802,5.0802,5.0802,5.0802,5.0802,5.0812,5.0822,5.0822,5.0824,5.1072,5.111,4.7865,4.6642,4.6679,4.7057,4.7183,4.7205,4.7504,4.7827,4.8101,4.8101,4.8101,4.8101,4.8101,4.8101,4.8101,4.812,4.8139,4.8139,4.8178,4.8178,4.8197,4.8216,4.8216,4.8235,4.8255,4.8913,4.951,4.951,4.8836,4.8235,4.8197,4.8178,4.8178,4.8178,4.8197,0.0,4.9375,4.949,4.9841,5.0688,5.0784,5.0765,5.0745,5.0745,5.0726,5.0707,5.0707,5.0707,5.0707,5.0707,5.0707,5.0707,4.988,4.9029,4.8178,0.0,0.0,0.0,0.0,0.0,0.0,0.0,0.0,0.0,0.0,0.0,0.0,0.0,0.0,0.0,0.0,0.0,0.0,0.0,0.0,0.0,4.3506,4.3506,4.3506,4.3506,4.3506,4.3506,4.3506,4.3726,4.4305,4.4378,4.4709,4.5516,4.5571,4.5663,4.5883,4.7003,4.7645,4.7645,4.882,4.9572,4.9783,5.0003,5.0233,5.0472,5.0692,5.0802,5.0802,5.0802,5.0802,5.0822,5.1111,5.1231,5.1268,5.1544,5.174,5.1651,4.9822,4.9479,4.9927,4.9448,4.906,4.868,4.8153,4.803,4.8101,4.8101,4.8101,4.8101,4.8101,4.8101,4.8235,4.8856,4.9048,4.9183,4.9822,4.9995,5.0125,5.0716,5.087,5.1024,5.1659,5.1986,5.2164,5.2164,5.1967,5.1414,5.0188,4.9995,4.9995,4.9995,5.0491,5.0947,5.1178,5.1755,5.226,5.2491,5.251,5.226,5.162,5.1563,5.1318,5.0745,5.0707,5.0707,5.0707,5.0707,5.0707,5.0707,5.0457,5.0226,0.0,0.0,0.0,0.0,0.0,0.0,0.0,0.0,0.0,0.0,0.0,0.0,0.0,0.0,0.0,0.0,0.0,0.0,0.0,0.0,0.0,0.0,4.3506,4.3616,4.3956,4.3708,4.3635,4.3956,4.3993,4.4323,4.5122,4.5195,4.5544,4.6333,4.6709,4.7058,4.7434,4.8655,4.9342,4.9342,5.0278,5.0802,5.0802,5.1132,5.1298,5.1316,5.1646,5.1801,5.1801,5.1801,5.1801,5.1832,5.2224,5.2407,5.2434,5.2863,5.315,5.3168,0.0,0.0,0.0,0.0,5.1222,5.0914,5.0409,5.0236,5.0236,5.0236,5.0236,5.0236,5.0236,5.0236,5.0332,5.0856,5.0991,5.1106,5.1625,5.1746,5.1875,5.2332,5.2447,5.2582,5.3082,5.3197,5.3197,5.3197,5.3197,0.0,5.1914,5.1746,5.1746,5.1746,5.2145,5.2449,5.2529,5.2926,5.3224,5.3281,5.3234,5.2986,5.2486,5.2447,0.0,0.0,0.0,5.1746,5.1746,5.1746,0.0,0.0,0.0,5.1869,5.1924,5.1997,0.0,0.0,4.9671,4.9667,0.0,0.0,0.0,0.0,0.0,0.0,0.0,0.0,0.0,0.0,0.0,0.0,0.0,0.0,0.0,0.0,4.3579,4.3909,4.4651,4.4227,4.4098,4.4825,4.4864,4.5167,4.602,4.614,4.6507,4.7314,4.817,4.8961,4.9702,5.0572,0.0,0.0,0.0,5.112,5.1077,5.1775,5.2152,5.2152,5.2847,5.3227,5.3272,5.3272,5.3303,5.3378,5.3777,5.395,5.3968,5.4433,5.4852,5.502,5.3435,5.2754,5.2708,5.3075,5.3197,5.3197,5.3197,0.0,0.0,5.3197,5.3197,5.3197,5.3197,5.3197,5.3197,5.3197,5.3197,5.3197,5.3197,5.3197,5.3217,5.3313,5.3351,5.3371,5.3467,5.3491,5.3491,5.3491,5.3492,5.3498,5.3498,5.3344,5.3229,5.3229,5.3311,5.3434,5.3549,5.355,5.3574,5.3708,5.3604,0.0,5.3408,5.3388,5.335,5.3254,5.3254,5.3254,5.3254,5.3254,5.3307,5.3416,5.342,5.3482,5.3599,5.3614,5.3621,5.3582,5.2079,5.1393,0.0,0.0,0.0,0.0,0.0,0.0,0.0,0.0,0.0,0.0,0.0,0.0,0.0,0.0,0.0,4.3506,4.4048,4.4646,4.5111,4.5613,4.5977,4.6128,4.5866,4.6119,4.7239,4.7638,4.8196,4.905,5.0167,5.0731,5.0593,5.195,5.2441,5.1787,5.2711,5.3054,5.2747,5.2884,5.2957,5.2957,5.3122,0.0,5.3673,5.3673,5.3897,5.4274,5.4667,5.4855,5.489,5.5306,5.5512,5.5486,5.4512,5.3706,5.3091,5.3163,5.3197,5.3197,5.3197,5.3197,5.3197,5.3197,5.3197,5.3197,5.3197,5.3197,0.0,5.3197,5.3197,5.3197,5.3197,5.3197,5.3376,5.4087,5.4241,5.4434,5.5068,5.5222,5.5222,5.5222,5.5302,5.5374,5.5374,5.426,5.3359,5.3359,5.406,5.4587,5.4619,5.5196,5.5633,5.5663,5.564,5.5349,5.4633,5.4575,5.4267,5.3571,5.3512,5.3512,5.3512,5.3512,5.3527,5.3558,5.3561,5.3574,5.3602,5.371,5.3763,5.3742,5.3312,5.3163,0.0,0.0,0.0,0.0,0.0,0.0,0.0,0.0,0.0,0.0,0.0,4.3506,4.3506,0.0,4.4103,4.4103,4.4945,4.5809,4.6419,4.7011,4.741,4.7395,4.7601,4.8043,4.8841,4.9667,5.0251,5.0482,5.1618,5.2202,5.2015,5.3184,5.3676,5.3264,5.3843,5.3942,5.3495,5.3495,5.3495,5.3495,5.3495,5.3944,5.4751,5.4751,5.5124,5.5748,5.5743,5.575,5.5758,5.5702,5.5708,5.567,5.5266,5.4838,5.4453,5.4453,5.4453,5.4453,5.4453,5.4453,5.4453,5.4453,5.4453,5.4453,5.4453,5.4453,5.4453,5.4453,5.4453,5.4453,5.4453,5.4453,5.4568,5.4991,5.5112,5.5208,5.5612,5.5708,5.5726,5.5784,5.5844,5.5932,5.6034,5.5408,5.4872,5.4812,5.5238,5.558,5.5638,5.5962,5.6239,5.6299,5.6232,5.6019,5.5594,5.5555,5.536,5.4935,5.4896,5.4896,5.4896,5.4896,5.4928,5.5005,5.5007,5.503,5.509,5.5175,5.5204,5.5203,5.5124,5.4676,0.0,0.0,0.0,0.0,0.0,0.0,0.0,0.0,4.3506,4.3506,4.3616,4.3726,4.3726,4.4397,4.4956,4.5034,4.5993,4.7074,4.8035,4.8586,4.8979,4.9224,4.9607,5.0037,5.0541,5.1569,5.2109,5.177,5.2881,5.3547,5.3462,5.4269,5.4655,5.4511,5.4582,5.4479,5.4166,5.4166,5.4259,5.4417,5.4417,5.4992,5.607,5.607,5.6503,5.7237,5.6906,5.6772,5.6741,5.6358,5.6203,5.6203,5.6203,5.6203,5.6165,5.5824,5.5708,5.5708,5.5708,5.5708,5.5708,5.5708,5.5708,5.5708,5.5708,5.5708,5.5708,5.5708,5.5708,5.5708,5.5708,5.5708,5.5708,5.5708,5.5708,5.5708,5.5708,5.5712,5.5769,5.5883,5.5947,5.6045,5.6212,5.6342,5.6387,5.6251,5.6253,5.6319,5.6422,5.6338,5.632,5.6424,5.6337,5.6288,5.6288,5.6288,5.6288,5.6288,5.6288,5.6288,5.6288,5.6288,5.6326,5.6448,5.6449,5.6488,5.6601,5.6601,5.6601,5.6601,5.6601,5.5859,4.0096,4.0497,4.1041,4.1643,4.2244,4.2808,0.0,0.0,4.3506,4.3506,4.4066,4.4571,4.4571,4.5223,4.588,4.6242,4.7018,4.8092,4.9613,5.0481,5.1386,5.253,5.1484,5.109,5.2213,5.2762,5.305,5.3004,5.4159,5.4736,5.4376,5.5122,5.525,5.4527,5.4859,5.5175,5.5481,5.5492,5.5885,5.6645,5.6645,5.6893,5.7392,5.7392,5.7677,5.8144,5.8122,5.8095,5.8076,5.8033,5.8011,5.8011,5.8011,5.8011,5.7819,5.6261,5.5708,5.5708,5.5708,5.5708,5.5708,5.5708,5.5708,5.5708,5.5708,5.5708,5.5708,5.5708,5.5708,5.5708,5.5708,5.5708,5.5708,5.5708,5.5708,5.5708,5.5708,5.5793,5.5872,5.5896,5.6142,5.6347,5.6376,5.6487,5.6537,5.6408,5.6484,5.656,5.6581,5.6561,5.656,5.6581,5.6561,5.656,5.656,5.656,5.656,5.656,5.656,5.656,5.656,5.656,5.656,5.6581,5.6581,5.6582,5.6601,5.6601,5.6601,5.6601,5.6601,5.6504,4.092,4.1252,4.1636,4.2571,4.2986,4.3223,4.3444,4.3873,4.4195,4.4195,4.4837,4.5406,4.5406,4.6058,4.6736,0.0,4.807,4.9222,5.0608,5.1295,5.2226,5.3764,5.3367,5.3028,5.327,5.4123,5.4567,5.4311,5.5008,5.5381,5.5205,5.5512,5.5785,5.5957,5.6128,5.6397,5.68,5.6819,5.699,5.7339,5.7339,5.7827,5.8706,5.8706,5.8812,5.9006,5.9006,5.8723,5.8294,5.8294,5.8294,5.8294,5.8294,5.8294,5.814,5.692,5.6459,5.6382,5.5882,5.5708,5.5708,5.5708,5.5708,5.5708,5.5708,5.5708,5.5708,5.5708,5.5708,5.5708,5.5708,5.5708,5.5708,5.5708,5.5769,5.5956,5.6467,5.6684,5.6945,5.7522,5.7769,5.7889,5.8015,5.8084,5.8085,5.8039,5.7205,5.6601,5.6601,5.6601,5.6601,5.6601,5.6601,5.6601,5.6601,5.6601,5.6601,5.6601,5.6601,5.6601,5.6601,5.6601,5.6601,5.6601,5.6601,5.6601,5.6601,5.7109,5.7363,5.7363,5.7871,5.8105,4.1324,4.1782,4.2254,4.306,4.3392,4.3561,4.3781,4.4287,4.4755,4.4993,4.5672,4.6232,4.6232,4.6883,4.7601,4.8119,4.9138,5.0324,5.1652,5.2288,5.3159,5.4645,5.4818,5.4699,5.437,5.5153,5.5582,5.5294,5.5549,5.5708,5.5708,5.5939,5.6343,5.6983,5.7228,5.7601,5.8112,5.8112,5.8245,5.8475,5.8475,5.8968,5.9858,5.9858,5.9858,5.9858,5.9858,5.9531,5.8992,5.8992,5.8992,5.8992,5.8992,5.8992,5.8877,5.8017,5.7555,5.7267,5.6646,5.6415,5.6415,5.6415,5.6415,5.6415,5.6415,5.6415,5.6415,5.6415,5.6415,5.6415,5.6415,5.644,5.6463,5.6463,5.6577,5.6853,5.7481,5.7717,5.8033,5.8765,5.8946,5.9026,5.9179,5.9199,5.9199,5.9199,5.8125,5.7324,5.7324,5.7324,5.7324,5.7324,5.7324,5.7324,5.7324,5.7324,5.7324,5.7324,5.7324,5.7324,5.7324,5.7324,5.7324,5.7324,5.7324,5.7324,5.7324,5.7949,5.8262,5.8262,5.8906,5.9199,0.0,0.0,4.2674,4.2721,4.3124,4.3708,4.448,4.4681,4.492,4.57,4.6498,4.7058,4.7058,4.7728,4.8531,4.9311,5.019,5.1318,5.2921,5.389,5.4722,5.5555,5.567,5.5665,0.0,5.5684,5.5684,5.5673,5.5684,5.5708,5.5708,5.6497,5.6964,5.7003,5.7819,5.864,5.9423,5.9437,5.9865,6.0692,6.0692,6.0717,6.0768,6.0768,6.0768,6.0768,6.0768,6.0748,6.0723,6.0723,6.0723,6.0723,6.0723,6.0723,6.0614,5.9742,5.8934,5.8256,5.8236,5.8223,5.8223,5.8223,5.8223,5.8223,5.8223,5.8223,5.8223,5.8223,5.8223,5.8223,5.8223,5.8317,5.8426,5.8426,5.8512,5.8618,5.8657,5.8769,5.885,5.8892,5.905,5.9199,5.9199,5.9199,5.9199,5.9199,5.914,5.9121,5.9121,5.9121,5.9121,5.9121,5.9121,5.9121,5.9121,5.9121,5.9121,5.9121,5.9121,5.9121,5.9121,5.9121,5.9121,5.9121,5.9121,5.9121,5.9121,5.914,5.916,5.916,5.9199,5.9199,0.0,0.0,4.2788,4.3151,4.3375,4.3708,4.4516,4.5104,4.5718,4.6535,4.7342,4.7911,4.7911,4.8113,4.8744,5.0146,5.0601,5.1559,5.3744,5.4318,5.4799,5.5593,5.5708,0.0,0.0,0.0,5.5708,5.5708,5.6247,5.6555,5.6555,5.7401,5.8107,5.8646,5.8934,5.9492,6.0339,6.0358,6.0512,6.0806,6.0806,6.0806,6.0806,6.0806,6.0806,6.0806,6.0806,6.0806,6.0806,6.0806,6.0806,6.0806,6.0806,6.0806,6.0768,6.0473,6.0185,5.98,5.8684,5.8294,5.8294,5.8294,5.8294,5.8294,5.8294,5.8294,5.8294,5.8294,5.8294,5.8325,5.8399,5.8471,5.8513,5.861,5.8732,5.8989,5.9576,5.979,6.0072,6.0658,6.0819,6.0859,6.0859,6.0859,6.0859,6.0859,5.9902,5.9199,5.9199,5.9199,5.9199,5.9199,5.9199,5.9199,5.9199,5.9199,5.9199,5.9199,5.9199,5.9199,5.9199,5.9199,5.9199,5.9199,5.9199,5.9199,5.9199,5.9746,6.0,6.0019,6.0586,6.0859,0.0,4.2541,4.306,4.3418,4.3726,4.414,4.4947,4.5746,4.6553,4.7361,4.7948,4.8296,4.8296,4.8296,4.8781,5.0293,5.0926,5.1935,5.3956,5.4639,5.5131,5.5651,5.5708,5.5708,0.0,0.0,5.5824,5.6132,5.667,5.7132,5.7459,5.8261,5.8973,5.9473,5.98,6.0223,6.0787,6.0806,6.0806,6.0806,6.0806,6.0806,6.0806,6.0806,6.0806,6.0806,6.0806,6.0806,6.0806,6.0806,6.0806,6.0806,6.0806,6.0806,6.0806,6.0806,6.0806,6.0646,5.9569,5.9184,5.9184,5.9184,5.9184,5.9184,5.9184,5.9184,5.9184,5.9184,5.9224,5.9287,5.9379,5.9475,5.9587,5.9681,5.9796,6.0057,6.0623,6.0796,6.1035,6.1582,6.1699,6.1699,6.1699,6.1699,6.1699,6.1699,6.0781,6.0098,6.0098,6.0098,6.0098,6.0098,6.0098,6.0098,6.0098,6.0098,6.0098,6.0098,6.0098,6.0098,6.0098,6.0098,6.0098,6.0098,6.0098,6.0098,6.0098,6.0605,6.0859,6.0879,6.1445,6.1699,4.2539,4.3087,4.3506,4.3506,4.4103,4.4902,4.5718,4.6516,4.7333,4.8131,4.8296,4.8296,0.0,0.0,4.8744,4.9991,5.1238,5.2466,5.3721,5.4948,5.5708,0.0,0.0,0.0,0.0,0.0,0.0,5.6997,5.7074,5.7459,5.8313,5.9127,5.9569,5.9569,6.0358,6.0806,6.0806,6.0806,6.0806,6.0806,6.0806,6.0806,6.0806,6.0806,6.0806,6.0806,6.0806,6.0806,6.0806,6.0806,6.0806,6.0806,6.0806,6.0806,6.0806,6.0806,6.0806,6.0806,6.0806,6.0806,6.0806,6.0806,6.0806,6.0806,6.0806,6.0793,6.081,6.081,6.09,6.1023,6.1012,6.1262,6.1504,6.1508,6.1608,6.1699,6.1699,6.1699,6.1699,6.1699,6.1699,6.1699,6.1699,6.1699,6.1699,6.1699,6.1699,6.1699,6.1699,6.1699,6.1699,6.1699,6.1699,6.1699,6.1699,6.1699,6.1699,6.1699,6.1699,6.1699,6.1699,6.1699,6.1699,6.1699,6.1699,6.1699,6.1699,6.1699,6.1699,6.1699,6.1699,6.1699,4.2655,4.3087,4.3506,4.3506,4.4103,4.4902,4.5718,4.6516,4.7333,4.8131,4.8296,4.8296,0.0,0.0,0.0,5.1206,5.2051,0.0,5.4958,5.5506,0.0,5.5708,0.0,5.5708,5.5708,5.6285,0.0,5.7896,5.7973,5.8338,5.9146,5.9992,6.0473,6.0473,6.0691,6.0806,6.0806,6.0806,6.0806,6.0806,6.0806,6.0806,6.0806,6.0806,6.0806,6.0806,6.0806,6.0806,6.0806,6.0806,6.0806,6.0806,6.0806,6.0806,6.0806,6.0806,6.0806,6.0806,6.0806,6.0806,6.0806,6.0806,6.0806,6.0806,6.0806,6.0866,6.0944,6.0944,6.1073,6.1253,6.1347,6.143,6.1537,6.1632,6.1679,6.1699,6.1699,6.1699,6.1699,6.1699,6.1699,6.1699,6.1699,6.1699,6.1699,6.1699,6.1699,6.1699,6.1699,6.1699,6.1699,6.1699,6.1699,6.1699,6.1699,6.1699,6.1699,6.1699,6.1699,6.1699,6.1699,6.1699,6.1699,6.1699,6.1699,6.1699,6.1699,6.1699,6.1699,6.1699,6.1699,6.1699,4.2625,4.3087,4.3506,4.3506,4.436,4.5351,4.5792,4.6792,4.7746,4.8205,4.8296,4.8296,4.8296,4.8621,4.9519,0.0,0.0,0.0,5.5162,5.5588,5.5708,0.0,5.5708,0.0,5.5708,5.6497,5.7363,5.8223,5.8627,5.9184,6.0031,6.0531,6.0806,6.0806,6.0806,6.0806,6.0806,6.0806,6.0806,6.0806,6.0806,6.0806,6.0806,6.0806,6.0806,6.0806,6.0806,6.0806,6.0806,6.0806,6.0806,6.0806,6.0806,6.0847,6.0883,6.0883,6.0935,6.103,6.103,6.103,6.0992,6.0919,6.0883,6.0904,6.0997,6.1063,6.112,6.112,6.1268,6.1413,6.1472,6.1546,6.1608,6.1679,6.1699,6.1699,6.1699,6.1699,6.1699,6.1699,6.1699,6.1699,6.1699,6.1699,6.1699,6.1699,6.1699,6.1699,6.1699,6.1699,6.1699,6.1699,6.1699,6.1699,6.1699,6.1699,6.1699,6.1699,6.1699,6.1699,6.1699,6.1699,6.1699,6.1699,6.1699,6.1699,6.1699,6.1699,6.1699,6.1699,6.1699,6.1699,4.2567,4.3087,4.3506,4.3506,4.4718,4.5902,4.5902,4.715,4.8296,4.8296,4.8296,4.8296,4.8296,4.8621,4.9433,5.105,0.0,5.3169,5.4791,5.5406,5.5708,5.5708,5.5708,5.5708,5.5708,5.6593,5.7497,5.8236,5.9146,5.9992,6.0768,6.0806,6.0806,6.0806,6.0806,6.0806,6.0806,6.0806,6.0806,6.0806,6.0806,6.0806,6.0806,6.0806,6.0806,6.0806,6.0806,6.0806,6.0806,6.0806,6.081,6.0825,6.0825,6.0905,6.1044,6.1044,6.1158,6.1306,6.1306,6.1306,6.1262,6.1105,6.1044,6.1062,6.1243,6.1301,6.1337,6.1337,6.143,6.1537,6.1537,6.161,6.1699,6.1699,6.1699,6.1699,6.1699,6.1699,6.1699,6.1699,6.1699,6.1699,6.1699,6.1699,6.1699,6.1699,6.1699,6.1699,6.1699,6.1699,6.1699,6.1699,6.1699,6.1699,6.1699,6.1699,6.1699,6.1699,6.1699,6.1699,6.1699,6.1699,6.1699,6.1699,6.1699,6.1699,6.1699,6.1699,6.1699,6.1699,6.1699,6.1699,4.2664,4.3087,4.3506,4.3506,4.4718,4.5902,4.5902,4.715,0.0,0.0,4.8296,4.8296,4.8296,4.8621,4.9347,5.0688,5.1858,5.3077,5.4427,5.5234,5.5708,0.0,5.5708,5.5708,5.5708,5.7146,0.0,5.8294,5.9704,6.0646,6.0787,6.0806,6.0806,6.0806,6.0806,6.0806,6.0806,6.0806,6.0806,6.0806,6.0806,6.0806,6.0806,6.0806,6.0806,6.0806,6.0806,6.0806,6.0806,6.0806,6.0874,6.0977,6.0977,6.1077,6.1243,6.1243,6.1262,6.1306,6.1306,6.1306,6.128,6.1253,6.1243,6.125,6.1297,6.1388,6.1462,6.1462,6.1553,6.1678,6.1678,6.1679,6.1699,6.1699,6.1699,6.1699,6.1699,6.1699,6.1699,6.1699,6.1699,6.1699,6.1699,6.1699,6.1699,6.1699,6.1699,6.1699,6.1699,6.1699,6.1699,6.1699,6.1699,6.1699,6.1699,6.1699,6.1699,6.1699,6.1699,6.1699,6.1699,6.1699,6.1699,6.1699,6.1699,6.1699,6.1699,6.1699,6.1699,6.1699,6.1699,6.1699,4.2142,4.2656,4.316,4.3427,4.4718,4.5902,4.5902,0.0,0.0,0.0,4.8296,4.8296,4.8296,4.8621,4.9315,5.0598,5.1804,5.3038,5.432,5.5189,5.5708,5.5708,5.5708,5.5882,5.6324,5.753,5.8467,5.8896,6.0089,6.0806,6.0806,6.0806,6.0806,6.0806,6.0806,6.0806,6.0806,6.0806,6.0806,6.0806,6.0806,6.0806,6.0806,6.0806,6.0806,6.0806,6.0806,6.0806,6.0806,6.0806,6.0834,6.0899,6.0899,6.1051,6.1306,6.1306,6.14,6.1508,6.1508,6.1508,6.1508,6.1508,6.1458,6.1424,6.1495,6.155,6.1607,6.1607,6.1656,6.1699,6.1699,6.1699,6.1699,6.1699,6.1699,6.1699,6.1699,6.1699,6.1699,6.1699,6.1699,6.1699,6.1699,6.1699,6.1699,6.1699,6.1699,6.1699,6.1699,6.1699,6.1699,6.1699,6.1699,6.1699,6.1699,6.1699,6.1699,6.1699,6.1699,6.1699,6.1699,6.1699,6.1699,6.1699,6.1699,6.1699,6.1699,6.1699,6.1699,6.1699,6.1699,6.1699,4.1479,4.2142,4.2807,4.3223,4.4491,4.5681,4.5865,4.7021,0.0,4.826,4.8296,4.8296,4.8296,4.855,4.9137,0.0,5.1554,5.2844,5.395,5.5017,5.5708,0.0,5.5708,0.0,5.6926,5.778,0.0,5.9435,6.03,6.0806,6.0806,6.0806,6.0806,6.0806,6.0806,6.0806,6.0806,6.0806,6.0806,6.0806,6.0806,6.0806,6.0806,6.0806,6.0806,6.0806,6.0806,6.0806,6.0806,6.0806,6.0842,6.0911,6.0911,6.1096,6.1395,6.1395,6.1514,6.1699,6.1699,6.1699,6.1699,6.1699,6.1633,6.1554,6.1678,6.1699,6.1699,6.1699,6.1699,6.1699,6.1699,6.1699,6.1699,6.1699,6.1699,6.1699,6.1699,6.1699,6.1699,6.1699,6.1699,6.1699,6.1699,6.1699,6.1699,6.1699,6.1699,6.1699,6.1699,6.1699,6.1699,6.1699,6.1699,6.1699,6.1699,6.1699,6.1699,6.1699,6.1699,6.1699,6.1699,6.1699,6.1699,6.1699,6.1699,6.1699,6.1699,6.1699,6.1699,6.1699,6.1699,6.1699,4.0972,4.1814,4.2721,4.2769,4.3798,4.4993,4.5736,0.0,4.7424,4.815,4.8296,4.8296,4.8296,4.8335,4.8504,0.0,0.0,5.2217,5.2717,5.4459,5.5708,5.5708,0.0,0.0,5.6926,5.778,5.8621,5.9435,6.03,6.0806,6.0806,6.0806,6.0806,6.0806,6.0806,6.0806,6.0806,6.0806,6.0806,6.0806,6.0806,6.0806,6.0806,6.0806,6.0806,6.0806,6.0806,6.0806,6.0806,6.0806,6.0988,6.124,6.124,6.1413,6.1658,6.1658,6.1679,6.1699,6.1699,6.1699,6.1699,6.1699,6.1699,6.1679,6.1699,6.1699,6.1699,6.1699,6.1699,6.1699,6.1699,6.1699,6.1699,6.1699,6.1699,6.1699,6.1699,6.1699,6.1699,6.1699,6.1699,6.1699,6.1699,6.1699,6.1699,6.1699,6.1699,6.1699,6.1699,6.1699,6.1699,6.1699,6.1699,6.1699,6.1699,6.1699,6.1699,6.1699,6.1699,6.1699,6.1699,6.1699,6.1699,6.1699,6.1699,6.1699,6.1699,6.1699,6.1699,6.1699,6.1699,6.1699,4.1257,4.18,4.2314,4.3014,4.4318,4.5516,4.5828,0.0,4.7911,4.8223,4.8296,4.8296,4.8296,4.8296,4.8504,4.9155,5.0794,0.0,5.2865,5.4543,5.5708,5.5708,5.5708,0.0,0.0,0.0,5.8858,6.0185,6.0589,6.0806,6.0806,6.0806,6.0806,6.0806,6.0806,6.0806,6.0806,6.0806,6.0806,6.0806,6.0806,6.0806,6.0806,6.0806,6.0806,6.0806,6.0806,6.0806,6.0806,6.0806,6.0929,6.1128,6.1128,6.1317,6.158,6.158,6.1633,6.1699,6.1699,6.1699,6.1699,6.1699,6.1699,6.1699,6.1699,6.1699,6.1699,6.1699,6.1699,6.1699,6.1699,6.1699,6.1699,6.1699,6.1699,6.1699,6.1699,6.1699,6.1699,6.1699,6.1699,6.1699,6.1699,6.1699,6.1699,6.1699,6.1699,6.1699,6.1699,6.1699,6.1699,6.1699,6.1699,6.1699,6.1699,6.1699,6.1699,6.1699,6.1699,6.1699,6.1699,6.1699,6.1699,6.1699,6.1699,6.1699,6.1699,6.1699,6.1699,6.1699,6.1699,6.1699,4.1268,4.1664,4.2041,4.3014,4.4226,4.5314,0.0,0.0,4.7737,4.8205,4.8296,4.8296,4.8296,4.8411,4.8657,4.9226,5.0699,5.2084,5.291,5.4367,5.5439,5.567,0.0,5.6035,5.6926,5.7992,5.9242,6.0691,6.0806,6.0806,6.0806,6.0806,6.0806,6.0806,6.0806,6.0806,6.0806,6.0806,6.0806,6.0806,6.0806,6.0806,6.0806,6.0806,6.0806,6.0806,6.0806,6.0806,6.0806,6.0806,6.0909,6.1097,6.1097,6.1276,6.1552,6.1552,6.1611,6.1699,6.1699,6.1699,6.1699,6.1699,6.1699,6.1699,6.1699,6.1699,6.1699,6.1699,6.1699,6.1699,6.1699,6.1699,6.1699,6.1699,6.1699,6.1699,6.1699,6.1699,6.1699,6.1699,6.1699,6.1699,6.1699,6.1699,6.1699,6.1699,6.1699,6.1699,6.1699,6.1699,6.1699,6.1699,6.1699,6.1699,6.1699,6.1699,6.1699,6.1699,6.1699,6.1699,6.1699,6.1699,6.1699,6.1699,6.1699,6.1699,6.1699,6.1699,6.1699,6.1699,6.1699,6.1699,4.0756,4.1347,4.1948,4.2567,4.3114,4.3947,0.0,4.5902,4.6379,4.7966,4.8296,4.8296,4.8296,4.8631,4.8897,4.8905,5.0258,0.0,5.2475,5.3707,5.4799,0.0,5.5708,5.6035,5.6926,5.8517,5.9858,6.0729,6.0806,6.0806,6.0806,6.0806,6.0806,6.0806,6.0806,6.0806,6.0806,6.0806,6.0806,6.0806,6.0806,6.0806,6.0806,6.0806,6.0806,6.0806,6.0806,6.0806,6.0806,6.0806,6.0997,6.1303,6.1303,6.1458,6.1699,6.1699,6.1699,6.1699,6.1699,6.1699,6.1699,6.1699,6.1699,6.1699,6.1699,6.1699,6.1699,6.1699,6.1699,6.1699,6.1699,6.1699,6.1699,6.1699,6.1699,6.1699,6.1699,6.1699,6.1699,6.1699,6.1699,6.1699,6.1699,6.1699,6.1699,6.1699,6.1699,6.1699,6.1699,6.1699,6.1699,6.1699,6.1699,6.1699,6.1699,6.1699,6.1699,6.1699,6.1699,6.1699,6.1699,6.1699,6.1699,6.1699,6.1699,6.1699,6.1699,6.1699,6.1699,6.1699,6.1699,6.1699,4.1263,4.1653,4.2041,4.3005,4.3796,4.4452,4.4957,4.5929,4.6856,4.7369,4.7911,4.8296,4.8296,4.8621,4.8986,4.9265,5.0437,5.1691,0.0,0.0,0.0,5.5593,5.5708,5.6285,5.7742,5.8377,5.9281,6.0691,6.0806,6.0806,6.0806,6.0806,6.0806,6.0806,6.0806,6.0806,6.0806,6.0806,6.0806,6.0806,6.0806,6.0806,6.0806,6.0806,6.0806,6.0806,6.0806,6.0806,6.0804,6.0904,6.1084,6.1317,6.1392,6.1547,6.1699,6.1699,6.1699,6.1699,6.1699,6.1699,6.1699,6.1699,6.1699,6.1699,6.1699,6.1699,6.1699,6.1699,6.1699,6.1699,6.1699,6.1699,6.1699,6.1699,6.1699,6.1699,6.1699,6.1699,6.1699,6.1699,6.1699,6.1699,6.1699,6.1699,6.1699,6.1699,6.1699,6.1699,6.1699,6.1699,6.1699,6.1699,6.1699,6.1699,6.1699,6.1699,6.1699,6.1699,6.1699,6.1699,6.1699,6.1699,6.1699,6.1699,6.1699,6.1699,6.1699,6.1699,6.1699,6.1699,6.1699,6.1699,0.0,4.1621,4.2031,4.2958,4.3732,0.0,0.0,4.5709,4.6737,4.7039,4.7746,4.8345,4.8495,4.8864,4.9257,4.9652,5.0487,5.1565,0.0,0.0,0.0,5.5574,5.5708,5.6376,5.8121,5.8294,5.8992,6.0671,6.0806,6.0806,6.0806,6.0806,6.0806,6.0806,6.0806,6.0806,6.0806,6.0806,6.0806,6.0806,6.0806,6.0806,6.0806,6.0806,6.0806,6.0793,6.0847,6.0876,0.0,6.1051,6.1214,6.1376,6.1462,6.1581,6.1699,6.1699,6.1699,6.1699,6.1699,6.1699,6.1699,6.1699,6.1699,6.1699,6.1699,6.1699,6.1699,6.1699,6.1699,6.1699,6.1699,6.1699,6.1699,6.1699,6.1699,6.1699,6.1699,6.1699,6.1699,6.1699,6.1699,6.1699,6.1699,6.1699,6.1699,6.1699,6.1699,6.1699,6.1699,6.1699,6.1699,6.1699,6.1699,6.1699,6.1699,6.1699,6.1699,6.1699,6.1699,6.1699,6.1699,6.1699,6.1699,6.1699,6.1699,6.1699,6.1699,6.1699,6.1699,6.1699,6.1699,6.1699,0.0,4.1313,4.1937,4.2539,4.3096,0.0,0.0,0.0,0.0,4.6856,4.7654,4.8365,4.882,4.9226,4.9624,5.0037,5.0432,5.1284,5.2972,5.3294,0.0,0.0,5.5708,5.6357,5.805,5.8256,5.8973,6.0589,6.0768,6.0806,6.0806,6.0806,6.0806,6.0806,6.0806,6.0806,6.0806,6.0806,6.0806,6.0806,6.0806,6.0806,6.0806,6.0806,6.0806,6.0818,6.093,6.0984,6.1019,6.1217,6.1371,6.1504,6.1509,6.1584,6.1699,6.1699,6.1699,6.1699,6.1699,6.1699,6.1699,6.1699,6.1699,6.1699,6.1699,6.1699,6.1699,6.1699,6.1699,6.1699,6.1699,6.1699,6.1699,6.1699,6.1699,6.1699,6.1699,6.1699,6.1699,6.1699,6.1699,6.1699,6.1699,6.1699,6.1699,6.1699,6.1699,6.1699,6.1699,6.1699,6.1699,6.1699,6.1699,6.1699,6.1699,6.1699,6.1699,6.1699,6.1699,6.1699,6.1699,6.1699,6.1699,6.1699,6.1699,6.1699,6.1699,6.1699,6.1699,6.1699,6.1699,6.1699,4.0249,0.0,4.1937,4.2539,4.3096,4.3543,0.0,0.0,0.0,0.0,0.0,0.0,0.0,4.9226,4.9624,5.0037,5.0432,5.1284,5.2972,5.4299,0.0,5.5651,5.5708,5.6112,5.7209,5.7915,5.8723,5.9723,6.0416,6.0806,6.0806,6.0806,6.0806,6.0806,6.0806,6.0806,6.0806,6.0806,6.0806,6.0806,6.0806,6.0806,6.0806,6.0806,6.0806,6.0806,6.0823,6.0919,6.1019,6.1217,6.1371,6.1509,6.161,6.1678,6.1699,6.1699,6.1699,6.1699,6.1699,6.1699,6.1699,6.1699,6.1699,6.1699,6.1699,6.1699,6.1699,6.1699,6.1699,6.1699,6.1699,6.1699,6.1699,6.1699,6.1699,6.1699,6.1699,6.1699,6.1699,6.1699,6.1699,6.1699,6.1699,6.1699,6.1699,6.1699,6.1699,6.1699,6.1699,6.1699,6.1699,6.1699,6.1699,6.1699,6.1699,6.1699,6.1699,6.1699,6.1699,6.1699,6.1699,6.1699,6.1699,6.1699,6.1699,6.1699,6.1699,6.1699,6.1699,6.1699,6.1699,6.1699,4.0096,4.0926,4.1885,4.2221,4.2894,4.3506,0.0,0.0,0.0,0.0,0.0,0.0,0.0,0.0,4.9699,5.0277,5.0554,5.1284,5.2972,0.0,5.5708,5.5708,5.5708,5.6035,5.6926,5.744,5.8204,5.9415,5.9935,6.0377,6.0787,6.0806,6.0806,6.0806,6.0806,6.0806,6.0806,6.0806,6.0806,6.0806,6.0806,6.0806,6.0806,6.0806,6.0806,6.0818,6.0964,6.1079,6.1169,6.1394,6.1537,6.1606,6.1678,6.1699,6.1699,6.1699,6.1699,6.1699,6.1699,6.1699,6.1699,6.1699,6.1699,6.1699,6.1699,6.1699,6.1699,6.1699,6.1699,6.1699,6.1699,6.1699,6.1699,6.1699,6.1699,6.1699,6.1699,6.1699,6.1699,6.1699,6.1699,6.1699,6.1699,6.1699,6.1699,6.1699,6.1699,6.1699,6.1699,6.1699,6.1699,6.1699,6.1699,6.1699,6.1699,6.1699,6.1699,6.1699,6.1699,6.1699,6.1699,6.1699,6.1699,6.1699,6.1699,6.1699,6.1699,6.1699,6.1699,6.1699,6.1699,6.1699,4.0096,4.0926,4.181,4.181,4.2649,4.3506,0.0,0.0,0.0,0.0,0.0,0.0,0.0,4.8971,0.0,0.0,0.0,0.0,5.301,5.4645,5.5708,5.5708,5.5708,5.5997,5.6728,5.6926,5.7594,5.9011,5.9358,5.9819,6.0556,6.0729,6.0806,6.0806,6.0806,6.0806,6.0806,6.0806,6.0806,6.0806,6.0806,6.0806,6.0806,6.0806,6.0806,6.0816,6.1116,6.1265,6.1329,6.1576,6.1679,6.1699,6.1699,6.1699,6.1699,6.1699,6.1699,6.1699,6.1699,6.1699,6.1699,6.1699,6.1699,6.1699,6.1699,6.1699,6.1699,6.1699,6.1699,6.1699,6.1699,6.1699,6.1699,6.1699,6.1699,6.1699,6.1699,6.1699,6.1699,6.1699,6.1699,6.1699,6.1699,6.1699,6.1699,6.1699,6.1699,6.1699,6.1699,6.1699,6.1699,6.1699,6.1699,6.1699,6.1699,6.1699,6.1699,6.1699,6.1699,6.1699,6.1699,6.1699,6.1699,6.1699,6.1699,6.1699,6.1699,6.1699,6.1699,6.1699,6.1699,6.1699,4.0096,4.0926,4.181,4.181,4.2649,4.3506,0.0,0.0,0.0,0.0,0.0,0.0,0.0,4.8971,4.9767,0.0,0.0,5.2914,5.3159,5.4645,5.5708,5.5708,5.5708,5.5747,5.5882,5.6574,5.7118,5.7363,5.8704,5.9569,5.9685,6.0396,6.0806,6.0806,6.0806,6.0806,6.0806,6.0806,6.0806,6.0806,6.0806,6.0806,6.0806,6.0806,6.0806,6.0804,6.0973,6.1131,6.132,6.1462,6.1606,6.1699,6.1699,6.1699,6.1699,6.1699,6.1699,6.1699,6.1699,6.1699,6.1699,6.1699,6.1699,6.1699,6.1699,6.1699,6.1699,6.1699,6.1699,6.1699,6.1699,6.1699,6.1699,6.1699,6.1699,6.1699,6.1699,6.1699,6.1699,6.1699,6.1699,6.1699,6.1699,6.1699,6.1699,6.1699,6.1699,6.1699,6.1699,6.1699,6.1699,6.1699,6.1699,6.1699,6.1699,6.1699,6.1699,6.1699,6.1699,6.1699,6.1699,6.1699,6.1699,6.1699,6.1699,6.1699,6.1699,6.1699,6.1699,6.1699,6.1699,6.1699,4.0096,4.0926,4.181,4.181,4.2649,4.3506,0.0,0.0,0.0,0.0,0.0,0.0,0.0,0.0,4.9256,5.0507,0.0,5.3197,5.3197,5.4645,5.5708,5.5708,5.5708,5.5708,5.5708,5.6055,5.6497,5.6964,5.7709,5.8531,5.9454,5.9877,6.03,6.0787,6.0806,6.0806,6.0806,6.0806,6.0806,6.0806,6.0806,6.0806,6.0806,6.0806,6.0834,6.092,6.1081,6.1268,6.1426,6.155,6.1636,6.1699,6.1699,6.1699,6.1699,6.1699,6.1699,6.1699,6.1699,6.1699,6.1699,6.1699,6.1699,6.1699,6.1699,6.1699,6.1699,6.1699,6.1699,6.1699,6.1699,6.1699,6.1699,6.1699,6.1699,6.1699,6.1699,6.1699,6.1699,6.1699,6.1699,6.1699,6.1699,6.1699,6.1699,6.1699,6.1699,6.1699,6.1699,6.1699,6.1699,6.1699,6.1699,6.1699,6.1699,6.1699,6.1699,6.1699,6.1699,6.1699,6.1699,6.1699,6.1699,6.1699,6.1699,6.1699,6.1699,6.1699,6.1699,6.1699,6.1699,6.1699,4.0096,4.0926,4.181,4.181,4.2649,0.0,0.0,0.0,0.0,0.0,0.0,0.0,0.0,4.7623,0.0,5.0494,5.2106,5.3197,5.3197,5.4645,5.5708,5.5708,5.5708,5.5708,5.5708,5.5708,5.5978,5.6651,5.6882,5.7555,5.8858,5.9108,5.9511,6.0185,6.0204,6.03,6.0492,6.0498,6.0589,6.0806,6.0806,6.0806,6.0806,6.0806,6.0871,6.1014,6.1214,6.1388,6.1509,6.1636,6.1699,6.1699,6.1699,6.1699,6.1699,6.1699,6.1699,6.1699,6.1699,6.1699,6.1699,6.1699,6.1699,6.1699,6.1699,6.1699,6.1699,6.1699,6.1699,6.1699,6.1699,6.1699,6.1699,6.1699,6.1699,6.1699,6.1699,6.1699,6.1699,6.1699,6.1699,6.1699,6.1699,6.1699,6.1699,6.1699,6.1699,6.1699,6.1699,6.1699,6.1699,6.1699,6.1699,6.1699,6.1699,6.1699,6.1699,6.1699,6.1699,6.1699,6.1699,6.1699,6.1699,6.1699,6.1699,6.1699,6.1699,6.1699,6.1699,6.1699,6.1699,6.1699,4.0096,4.0926,4.181,4.181,4.2649,0.0,4.3506,4.3506,0.0,4.3506,0.0,0.0,0.0,4.8938,5.0571,5.0683,5.2106,5.3197,5.3197,5.4645,5.5708,5.5708,5.5708,5.5708,5.5708,5.5708,5.5728,5.5785,5.6536,5.706,5.7176,5.7953,5.8409,5.8486,5.8486,5.8838,5.9588,5.9588,5.9992,6.0806,6.0806,6.0806,6.0806,6.0806,6.0871,6.1014,6.1214,6.1388,6.1509,6.1636,6.1699,6.1699,6.1699,6.1699,6.1699,6.1699,6.1699,6.1699,6.1699,6.1699,6.1699,6.1699,6.1699,6.1699,6.1699,6.1699,6.1699,6.1699,6.1699,6.1699,6.1699,6.1699,6.1699,6.1699,6.1699,6.1699,6.1699,6.1699,6.1699,6.1699,6.1699,6.1699,6.1699,6.1699,6.1699,6.1699,6.1699,6.1699,6.1699,6.1699,6.1699,6.1699,6.1699,6.1699,6.1699,6.1699,6.1699,6.1699,6.1699,6.1699,6.1699,6.1699,6.1699,6.1699,6.1699,6.1699,6.1699,6.1699,6.1699,6.1699,6.1699,6.1699,4.0521,4.1196,4.1895,4.2272,4.294,0.0,0.0,4.3506,4.3506,4.3506,4.4005,0.0,0.0,0.0,5.0072,5.0611,5.1645,5.2582,5.3121,5.4203,5.5151,5.5651,5.5708,5.5708,5.5708,5.5708,5.5708,5.5708,5.6016,5.642,5.6964,5.7305,5.7742,5.8275,5.8294,5.8454,5.8756,5.8756,5.8915,5.9261,6.03,6.0806,6.0793,6.0897,6.1012,6.12,6.1359,6.1504,6.1633,6.1679,6.1699,6.1699,6.1699,6.1699,6.1699,6.1699,6.1699,6.1699,6.1699,6.1699,6.1699,6.1699,6.1699,6.1699,6.1699,6.1699,6.1699,6.1699,6.1699,6.1699,6.1699,6.1699,6.1699,6.1699,6.1699,6.1699,6.1699,6.1699,6.1699,6.1699,6.1699,6.1699,6.1699,6.1699,6.1699,6.1699,6.1699,6.1699,6.1699,6.1699,6.1699,6.1699,6.1699,6.1699,6.1699,6.1699,6.1699,6.1699,6.1699,6.1699,6.1699,6.1699,6.1699,6.1699,6.1699,6.1699,6.1699,6.1699,6.1699,6.1699,6.1699,6.1699,4.0803,4.1479,4.2183,0.0,0.0,0.0,4.3506,4.3506,4.3531,4.3629,4.4456,0.0,4.7439,0.0,0.0,5.0592,5.1375,5.2197,5.3082,5.3953,5.4799,5.5593,5.5708,5.5708,5.5708,5.5708,5.5708,5.5708,5.5708,5.5958,5.6555,5.6593,5.6863,5.7453,5.7473,5.7607,5.7896,5.7896,5.803,5.8313,5.9504,6.0044,6.0023,6.0427,6.0713,6.0912,6.1329,6.1579,6.1699,6.1699,6.1699,6.1699,6.1699,6.1699,6.1699,6.1699,6.1699,6.1699,6.1699,6.1699,6.1699,6.1699,6.1699,6.1699,6.1699,6.1699,6.1699,6.1699,6.1699,6.1699,6.1699,6.1699,6.1699,6.1699,6.1699,6.1699,6.1699,6.1699,6.1699,6.1699,6.1699,6.1699,6.1699,6.1699,6.1699,6.1699,6.1699,6.1699,6.1699,6.1699,6.1699,6.1699,6.1699,6.1699,6.1699,6.1699,6.1699,6.1699,6.1699,6.1699,6.1699,6.1699,6.1699,6.1699,6.1699,6.1699,6.1699,6.1699,6.1699,6.1699,6.1699,6.1699,4.0903,4.1789,4.2684,0.0,0.0,0.0,4.3506,4.3506,4.3597,4.3951,4.5917,4.7693,4.8039,4.951,0.0,5.0707,5.1375,5.2197,5.3063,5.3933,5.478,5.5593,5.5708,5.5708,5.5708,5.5708,5.5708,5.5708,5.5708,5.5708,5.5708,5.5708,5.5708,5.5708,5.5708,5.6112,5.6983,5.6983,5.742,5.8286,5.8413,5.8404,5.833,5.933,5.9851,6.0047,6.104,6.156,6.168,6.168,6.1699,6.1699,6.1699,6.1699,6.1699,6.1699,6.1699,6.1699,6.1699,6.1699,6.1699,6.1699,6.1699,6.1699,6.1699,6.1699,6.1699,6.1699,6.1699,6.1699,6.1699,6.1699,6.1699,6.1699,6.1699,6.1699,6.1699,6.1699,6.1699,6.1699,6.1699,6.1699,6.1699,6.1699,6.1699,6.1699,6.1699,6.1699,6.1699,6.1699,6.1699,6.1699,6.1699,6.1699,6.1699,6.1699,6.1699,6.1699,6.1699,6.1699,6.1699,6.1699,6.1699,6.1699,6.1699,6.1699,6.1699,6.1699,6.1699,6.1699,6.1699,6.1699,4.1331,4.1782,0.0,4.3069,0.0,0.0,0.0,4.3506,0.0,0.0,4.6114,4.7693,4.8039,4.951,5.0707,5.0707,5.0899,5.1337,5.2178,5.3044,5.3895,5.4741,5.5362,5.5708,5.5708,5.5708,5.5708,5.5708,5.5708,5.5708,5.5708,5.5708,5.5708,5.5708,5.5708,5.5824,5.6074,5.6093,5.6264,5.661,5.6661,5.7291,5.8456,5.8939,5.9187,5.9244,5.9686,5.99,5.998,6.0547,6.0781,6.0859,6.1465,6.1699,6.1699,6.1699,6.1699,6.1699,6.1699,6.1699,6.1699,6.1699,6.1699,6.1699,6.1699,6.1699,6.1699,6.1699,6.1699,6.1699,6.1699,6.1699,6.1699,6.1699,6.1699,6.1699,6.1699,6.1699,6.1699,6.1699,6.1699,6.1699,6.1699,6.1699,6.1699,6.1699,6.1699,6.1699,6.1699,6.1699,6.1699,6.1699,6.1699,6.1699,6.1699,6.1699,6.1699,6.1699,6.1699,6.1699,6.1699,6.1699,6.1699,6.1699,6.1699,6.1699,6.1699,6.1699,6.1699,6.1699,6.1699,6.1699,4.1913,4.2314,0.0,4.333,4.3506,4.3506,4.3506,0.0,0.0,0.0,4.6048,4.7489,4.8001,4.924,5.0303,5.063,5.0707,5.0976,5.1793,5.2351,5.314,5.4357,5.4934,5.5343,5.567,5.5708,5.5708,5.5708,5.5708,5.5708,5.5708,5.5708,5.5708,5.5708,5.5708,5.5722,5.5784,5.5789,5.5851,5.6021,5.6071,5.6643,5.7676,5.8192,5.8418,5.8442,5.8979,5.9199,5.9238,5.9726,5.9922,5.998,6.0508,6.0703,6.0703,6.0703,6.0703,6.0703,6.0703,6.0703,6.0762,6.1074,6.1172,6.125,6.1582,6.1699,6.1699,6.1699,6.1699,6.1699,6.1699,6.1445,6.1269,6.1621,6.1699,6.1699,6.1699,6.1699,6.1699,6.1699,6.1699,6.1699,6.1699,6.1699,6.1699,6.1699,6.1699,6.1699,6.1699,6.1699,6.1562,6.1211,6.1172,6.1055,6.0723,6.0996,6.1172,6.1172,6.1504,6.1699,6.1699,6.1699,6.1699,6.1699,6.1699,6.1699,6.1699,6.1699,6.1699,6.1699,6.1699,6.1699,4.246,4.3014,0.0,4.3497,4.3506,0.0,4.3506,4.4065,4.4593,4.4593,0.0,4.7158,4.7947,4.8817,4.9687,5.0553,5.0707,5.0957,5.1697,5.1846,5.2486,5.4068,5.4395,5.478,5.5516,5.567,5.5708,5.5708,5.5708,5.5708,5.5708,5.5708,5.5708,5.5708,5.571,5.5784,5.5896,5.592,5.6031,5.6212,5.6335,5.6412,5.6458,5.724,5.7592,5.7653,5.857,5.8965,5.8965,5.9043,5.9082,5.9082,5.918,5.9199,5.9199,5.9199,5.9199,5.9199,5.9199,5.9199,5.9316,6.0058,6.0293,6.0449,6.123,6.1465,6.1465,6.1465,6.1465,6.1465,6.1465,6.0879,6.0488,6.1289,6.1465,6.1465,6.1465,6.1465,6.1465,6.1465,6.1465,6.1465,6.1465,6.1465,6.1465,6.1465,6.1465,6.1465,6.1465,6.1465,6.1172,6.0371,6.0293,5.998,5.9258,5.9863,6.0293,6.0293,6.1035,6.1465,6.1465,6.1621,6.1699,6.1699,6.1699,6.1699,6.1699,6.1699,6.1699,6.1699,6.1699,6.1699,4.1832,4.2422,0.0,0.0,4.3506,4.3506,4.3506,4.4065,4.4593,4.4593,4.5821,4.7158,4.7947,4.8817,4.9687,5.0553,5.0707,5.0765,5.0938,5.1505,5.2038,5.2409,5.3664,5.4568,5.4741,5.5324,5.5708,5.5708,5.5708,5.5708,5.5708,5.5708,5.5708,5.5708,5.5788,5.587,5.59,5.6055,5.6217,5.6365,5.6382,5.6455,5.656,5.6755,5.6833,5.6853,5.707,5.7168,5.7207,5.789,5.8183,5.8242,5.8926,5.9199,5.9199,5.9199,5.9199,5.9199,5.9199,5.9199,5.9238,5.9394,5.9453,5.9492,5.9687,5.9746,5.9746,5.9746,5.9746,5.9746,5.9746,5.9609,5.9512,5.9687,5.9746,5.9746,5.9746,5.9746,5.9746,5.9746,5.9746,5.9746,5.9746,5.9746,5.9746,5.9746,5.9746,5.9746,5.9746,5.9746,5.9668,5.9473,5.9453,5.9394,5.9219,5.9355,5.9453,5.9453,5.9629,5.9746,5.9746,6.0996,6.1699,6.1699,6.1699,6.1699,6.1699,6.1699,6.1699,6.1699,6.1699,6.1699,4.207,0.0,0.0,4.3427,0.0,4.3548,4.3701,4.418,4.4657,4.4812,4.5606,4.6528,4.737,4.8221,4.9067,4.9938,5.0438,5.0707,5.0707,5.1048,5.1467,5.1846,5.2697,5.3587,5.4414,5.4876,5.5285,5.567,5.5708,5.5708,5.5708,5.575,5.5798,5.5798,5.5963,5.6065,5.6139,5.6232,5.6369,5.6508,5.6508,5.6537,5.6601,5.6601,5.6601,5.6601,5.6601,5.6601,5.664,5.709,5.7285,5.7324,5.7773,5.7969,5.7969,5.7969,5.7969,5.7969,5.7969,5.7969,5.8027,5.8437,5.8574,5.8652,5.9062,5.9199,5.9199,5.9199,5.9199,5.9199,5.9199,5.8887,5.8574,5.8574,5.8906,5.9199,5.9199,5.9199,5.9199,5.9199,5.9199,5.9199,5.9199,5.9199,5.9199,5.9199,5.9199,5.9199,5.9199,5.9199,5.9043,5.8613,5.8574,5.8418,5.7988,5.834,5.8574,5.8574,5.8965,5.9199,5.9199,6.0039,6.0683,6.1074,6.1074,6.1289,6.1699,6.1699,6.1699,6.1699,6.1699,6.1699,4.2372,0.0,4.3506,4.3506,4.3506,0.0,4.3849,4.428,4.467,4.4948,4.5327,4.5879,4.6735,4.7447,4.8216,4.924,5.0014,5.0534,5.0668,5.0707,5.0957,5.1601,5.1813,5.2467,5.3914,5.4184,5.4607,5.5439,5.5497,5.5556,5.5738,5.5837,5.5916,5.5955,5.6133,5.6295,5.6408,5.6421,5.6487,5.6601,5.6601,5.6601,5.6601,5.6601,5.6601,5.6601,5.6601,5.6601,5.6601,5.6601,5.6601,5.6601,5.6601,5.6601,5.6601,5.6601,5.6601,5.6601,5.6601,5.6601,5.6719,5.7441,5.7676,5.7812,5.8535,5.875,5.875,5.875,5.875,5.875,5.875,5.8223,5.7676,5.7676,5.8223,5.875,5.875,5.875,5.875,5.875,5.875,5.875,5.875,5.875,5.875,5.875,5.875,5.875,5.875,5.875,5.8476,5.7754,5.7676,5.7383,5.666,5.7265,5.7676,5.7676,5.8359,5.875,5.875,5.875,5.914,5.9941,6.0117,6.0625,6.1484,6.1484,6.1543,6.1699,6.1699,6.1699,0.0,0.0,4.3506,0.0,4.3506,4.3505,0.0,0.0,4.4606,0.0,4.5161,4.5879,4.6735,4.6985,4.7562,4.9144,4.949,4.9841,5.0592,5.0707,5.0745,5.0842,5.1486,5.1981,5.2217,5.2928,5.3722,5.4607,5.4664,5.5017,5.5827,5.5884,5.5985,5.6158,5.6307,5.638,5.641,5.6514,5.6581,5.6601,5.6601,5.6601,5.6601,5.6601,5.6601,5.6601,5.6601,5.6601,5.6601,5.6601,5.6601,5.6601,5.6601,5.6601,5.6601,5.6601,5.6601,5.6601,5.6601,5.6601,5.6621,5.6738,5.6777,5.6797,5.6914,5.6953,5.6953,5.6953,5.6953,5.6953,5.6953,5.6855,5.6777,5.6777,5.6855,5.6953,5.6953,5.6953,5.6953,5.6953,5.6953,5.6953,5.6953,5.6953,5.6953,5.6953,5.6953,5.6953,5.6953,5.6953,5.6894,5.6797,5.6777,5.6738,5.6601,5.6719,5.6777,5.6777,5.6875,5.6953,5.6953,5.6953,5.7344,5.8223,5.8984,5.9765,6.0566,6.0566,6.0957,6.1699,6.1699,6.1699,4.2059,4.2884,4.3506,0.0,4.3506,4.3556,4.3742,4.4209,4.4644,4.4849,4.5263,4.5725,4.6105,4.6567,4.7139,4.787,4.8798,4.9529,4.9918,5.038,5.0707,5.0707,5.1015,5.1395,5.1865,5.2255,5.2832,5.3703,5.378,5.3971,5.4471,5.5021,5.5403,5.5586,5.6196,5.6512,5.6512,5.6561,5.6601,5.6601,5.6601,5.6601,5.6601,5.6601,5.6601,5.6601,5.6601,5.6601,5.6601,5.6601,5.6601,5.6601,5.6601,5.6601,5.6601,5.6601,5.6601,5.6601,5.6601,5.6601,5.6601,5.6601,5.6601,5.6601,5.6601,5.6601,5.6601,5.6601,5.6601,5.6601,5.6601,5.6601,5.6601,5.6601,5.6601,5.6601,5.6601,5.6601,5.6601,5.6601,5.6601,5.6601,5.6601,5.6601,5.6601,5.6601,5.6601,5.6601,5.6601,5.6601,5.6601,5.6601,5.6601,5.6601,5.6601,5.6601,5.6601,5.6601,5.6601,5.6601,5.6601,5.6601,5.6777,5.7168,5.8027,5.8887,5.9726,5.9726,6.0156,6.0976,6.0976,6.123,0.0,0.0,4.3506,4.3506,4.3506,4.3573,0.0,0.0,4.4663,4.4919,4.5312,4.5594,4.5594,4.6124,4.6639,4.687,4.7952,4.8913,4.9336,4.9957,5.0457,5.0668,5.0707,5.0938,5.1543,5.1601,5.1958,5.2849,5.2912,5.3082,5.3489,5.4202,5.4677,5.481,5.5543,5.6055,5.6269,5.6484,5.6601,5.6601,5.6601,5.6601,5.6601,5.6601,5.6601,5.6601,5.6601,5.6601,5.6601,5.6601,5.6601,5.6601,5.6601,5.6601,5.6601,5.6601,5.6601,5.6601,5.6601,5.6601,5.6601,5.6601,5.6601,5.6601,5.6601,5.6601,5.6601,5.6601,5.6601,5.6601,5.6601,5.6601,5.6601,5.6601,5.6601,5.6601,5.6601,5.6601,5.6601,5.6601,5.6601,5.6601,5.6601,5.6601,5.6601,5.6601,5.6601,5.6601,5.6601,5.6601,5.6601,5.6601,5.6601,5.6601,5.6601,5.6601,5.6601,5.6601,5.6601,5.6601,5.6601,5.6601,5.6601,5.6601,5.7246,5.8008,5.8867,5.8867,5.9297,6.0098,6.0293,6.0742,0.0,4.2667,0.0,4.3506,4.3506,4.3496,0.0,0.0,4.4599,4.4618,4.5145,4.5594,4.5594,4.5633,4.5936,4.6774,4.6966,4.7582,4.9183,4.9433,4.9764,5.0592,5.0707,5.0726,5.0765,5.0765,5.1153,5.2094,5.2164,5.2634,5.3711,5.382,5.3913,5.4043,5.4101,5.4531,5.5351,5.6191,5.6601,5.6601,5.6601,5.6601,5.6601,5.6601,5.6601,5.6601,5.6601,5.6601,5.6601,5.6601,5.6601,5.6601,5.6601,5.6601,5.6601,5.6601,5.6601,5.6601,5.6601,5.6601,5.6601,5.6601,5.6601,5.6601,5.6601,5.6601,5.6601,5.6601,5.6601,5.6601,5.6601,5.6601,5.6601,5.6601,5.6601,5.6601,5.6601,5.6601,5.6601,5.6601,5.6601,5.6601,5.6601,5.6601,5.6601,5.6601,5.6601,5.6601,5.6601,5.6601,5.6601,5.6601,5.6601,5.6601,5.6601,5.6601,5.6601,5.6601,5.6601,5.6601,5.6601,5.6601,5.6601,5.6601,5.664,5.7109,5.7969,5.7969,5.8418,5.9277,6.0039,6.043,0.0,0.0,0.0,4.3506,4.3506,4.3565,4.3764,4.423,4.4651,4.4878,4.5273,4.5594,4.5594,4.5594,4.5706,4.6013,4.6547,4.7101,4.7716,4.824,4.8894,4.9764,4.988,5.0091,5.0649,5.0707,5.0842,5.118,5.1277,5.1558,5.2042,5.2638,5.3023,5.3164,5.3711,5.4141,5.4453,5.4785,5.4922,5.4922,5.4922,5.5215,5.5762,5.5762,5.6074,5.6601,5.6601,5.6601,5.6601,5.6601,5.6601,5.6601,5.6601,5.6601,5.6601,5.6601,5.6601,5.6601,5.6601,5.6601,5.6601,5.6601,5.6601,5.6601,5.6601,5.6601,5.6601,5.6601,5.6601,5.6601,5.6601,5.6601,5.6601,5.6601,5.6601,5.6601,5.6601,5.6601,5.6601,5.6601,5.6601,5.6601,5.6601,5.6601,5.6601,5.6601,5.6601,5.6601,5.6601,5.6601,5.6601,5.6601,5.6601,5.6601,5.6601,5.6601,5.6601,5.6601,5.6601,5.6601,5.6601,5.6601,5.6601,5.6601,5.6601,5.6758,5.707,5.707,5.7519,5.8379,5.8652,5.9375,4.2059,0.0,0.0,0.0,4.3506,4.3589,4.3917,4.4304,4.4707,4.5036,4.5381,4.5594,4.5594,4.5594,4.5594,4.5594,4.609,4.6567,4.6851,4.7351,4.8005,4.8856,4.8952,4.9317,5.0188,5.0265,5.0412,5.0819,5.0914,5.1036,5.1195,5.1797,5.2177,5.2265,5.3105,5.3555,5.3555,5.3848,5.4004,5.4004,5.4004,5.4297,5.4863,5.4863,5.5176,5.5723,5.5723,5.6055,5.6601,5.6601,5.6601,5.6601,5.6601,5.6601,5.6601,5.6601,5.6601,5.6601,5.6601,5.6601,5.6601,5.6601,5.6601,5.6601,5.6601,5.6601,5.6601,5.6601,5.6601,5.6601,5.6601,5.6601,5.6601,5.6601,5.6601,5.6601,5.6601,5.6601,5.6601,5.6601,5.6601,5.6601,5.6601,5.6601,5.6601,5.6601,5.6601,5.6601,5.6601,5.6601,5.6601,5.6601,5.6601,5.6601,5.6601,5.6601,5.6601,5.6601,5.6601,5.6601,5.6601,5.6601,5.6601,5.6601,5.6601,5.6601,5.6601,5.6601,5.6894,5.7461,5.7754,5.8808,0.0,0.0,0.0,0.0,0.0,0.0,4.3917,4.4304,4.4707,4.5036,4.5381,4.5594,4.5594,4.5594,4.5594,4.5594,4.5594,4.5898,4.6735,4.6851,4.7158,4.7966,4.8062,4.8413,4.9279,4.9356,4.9825,5.0969,5.105,5.1151,5.1386,5.1406,5.1406,5.1406,5.2226,5.2656,5.2656,5.3496,5.3926,5.3926,5.3926,5.3945,5.3965,5.3965,5.3984,5.4004,5.4004,5.4961,5.6523,5.6543,5.6562,5.6562,5.6582,5.6601,5.6601,5.6601,5.6601,5.6601,5.6601,5.6601,5.6601,5.6601,5.6601,5.6601,5.6601,5.6601,5.6601,5.6601,5.6601,5.6601,5.6601,5.6601,5.6601,5.6601,5.6601,5.6601,5.6601,5.6601,5.6601,5.6601,5.6601,5.6601,5.6601,5.6601,5.6601,5.6601,5.6601,5.6601,5.6601,5.6601,5.6601,5.6601,5.6601,5.6601,5.6601,5.6601,5.6601,5.6601,5.6601,5.6601,5.6601,5.6601,5.6601,5.6601,5.6601,5.6601,5.6601,5.6601,5.6601,5.6621,5.748,5.8769,4.2645,0.0,0.0,0.0,0.0,0.0,4.3917,4.4304,4.4707,4.5036,4.5381,4.5594,4.5594,4.5594,4.5594,4.5594,4.5594,4.5686,4.5936,4.5956,4.6278,4.712,4.7235,4.7562,4.8375,4.8471,4.8889,4.9944,5.0092,5.0484,5.1222,5.1344,5.1406,5.1406,5.1621,5.1758,5.1758,5.1992,5.2129,5.2129,5.2129,5.2441,5.3066,5.3066,5.3398,5.4004,5.4004,5.4277,5.4765,5.539,5.5664,5.5723,5.6348,5.6601,5.6601,5.6601,5.6601,5.6601,5.6601,5.6601,5.6601,5.6601,5.6601,5.6601,5.6601,5.6601,5.6601,5.6601,5.6601,5.6601,5.6601,5.6601,5.6601,5.6601,5.6601,5.6601,5.6601,5.6601,5.6601,5.6601,5.6601,5.6601,5.6601,5.6601,5.6601,5.6601,5.6601,5.6601,5.6601,5.6601,5.6601,5.6601,5.6601,5.6601,5.6601,5.6601,5.6601,5.6601,5.6601,5.6601,5.6601,5.6601,5.6601,5.6601,5.6601,5.6601,5.6601,5.6601,5.6601,5.6621,5.748,5.8144,0.0,0.0,0.0,0.0,0.0,0.0,4.4143,4.444,4.4726,4.5217,4.5452,4.5594,4.5594,4.5594,4.5594,4.5594,4.5594,4.5594,4.5594,4.5594,4.5782,4.6297,4.6355,4.6682,4.7524,4.7601,4.8034,4.9065,4.9208,4.9693,5.0723,5.0857,5.1055,5.1387,5.1406,5.1406,5.1406,5.1406,5.1406,5.1406,5.1406,5.168,5.2168,5.2168,5.2422,5.293,5.293,5.293,5.2988,5.3867,5.4433,5.4805,5.5312,5.5742,5.6055,5.6055,5.6289,5.6601,5.6601,5.6601,5.6601,5.6601,5.6601,5.6601,5.6601,5.6601,5.6601,5.6601,5.6601,5.6601,5.6601,5.6601,5.6601,5.6601,5.6601,5.6601,5.6601,5.6601,5.6601,5.6601,5.6601,5.6601,5.6601,5.6601,5.6601,5.6601,5.6601,5.6601,5.6601,5.6601,5.6601,5.6601,5.6601,5.6601,5.6601,5.6601,5.6601,5.6601,5.6601,5.6601,5.6601,5.6601,5.6601,5.6601,5.6601,5.6601,5.6601,5.6601,5.6601,5.6601,5.7129,5.7558,0.0,0.0,0.0,0.0,0.0,0.0,4.4323,4.4507,4.4707,4.5298,4.5495,4.5535,4.5535,4.5573,4.5594,4.5594,4.5594,4.5594,4.5594,4.5594,4.5594,4.5594,4.5594,4.5898,4.6678,4.6755,4.7198,4.8278,4.8476,4.8991,5.0,5.0058,5.043,5.123,5.1269,5.1308,5.1406,5.1406,5.1406,5.1406,5.1406,5.1406,5.1406,5.1406,5.1406,5.1406,5.1406,5.1406,5.1465,5.2246,5.3066,5.3867,5.3965,5.4473,5.5156,5.5156,5.5703,5.6465,5.6465,5.6523,5.6601,5.6601,5.6601,5.6601,5.6601,5.6601,5.6601,5.6601,5.6601,5.6601,5.6601,5.6601,5.6601,5.6601,5.6601,5.6601,5.6601,5.6601,5.6601,5.6601,5.6601,5.6601,5.6601,5.6601,5.6601,5.6601,5.6601,5.6601,5.6601,5.6601,5.6601,5.6601,5.6601,5.6601,5.6601,5.6601,5.6601,5.6601,5.6601,5.6601,5.6601,5.6601,5.6601,5.6601,5.6601,5.6601,5.6601,5.6601,5.6601,5.6601,5.6601,5.7012,0.0,0.0,0.0,0.0,0.0,0.0,4.3679,4.392,4.4154,4.4285,4.4787,4.5201,4.5201,4.5419,4.5594,4.5594,4.5594,4.5594,4.5594,4.5594,4.5594,4.5594,4.5594,4.5667,4.584,4.5859,4.6298,4.7368,4.8297,4.8922,4.9141,4.9141,4.9551,5.041,5.043,5.0742,5.1387,5.1406,5.1406,5.1406,5.1406,5.1406,5.1406,5.1406,5.1406,5.1406,5.1406,5.1406,5.1406,5.1582,5.2168,5.3027,5.373,5.4101,5.4258,5.4258,5.4805,5.5547,5.5547,5.6015,5.6601,5.6601,5.6601,5.6601,5.6601,5.6601,5.6601,5.6601,5.6601,5.6601,5.6601,5.6601,5.6601,5.6601,5.6601,5.6601,5.6601,5.6601,5.6601,5.6601,5.6601,5.6601,5.6601,5.6601,5.6601,5.6601,5.6601,5.6601,5.6601,5.6601,5.6601,5.6601,5.6601,5.6601,5.6601,5.6601,5.6601,5.6601,5.6601,5.6601,5.6601,5.6601,5.6601,5.6601,5.6601,5.6601,5.6601,5.6601,5.6601,5.6601,5.6601,5.6699,0.0,0.0,0.0,4.3506,0.0,0.0,0.0,4.3881,4.4069,4.4254,4.458,4.4855,4.4855,4.4983,4.5156,4.5327,4.5347,4.541,4.5577,4.5594,4.5594,4.5594,4.5594,4.5594,4.5594,4.5594,4.5854,4.651,4.7139,4.7729,4.8223,4.8242,4.8652,4.9512,4.9551,4.9746,5.0156,5.0586,5.0801,5.0801,5.1211,5.1406,5.1406,5.1406,5.1406,5.1406,5.1406,5.1406,5.1406,5.1406,5.166,5.2109,5.2539,5.2969,5.3359,5.3359,5.3906,5.4648,5.4648,5.5215,5.5957,5.5957,5.625,5.6601,5.6601,5.6601,5.6601,5.6601,5.6601,5.6601,5.6601,5.6601,5.6601,5.6601,5.6601,5.6601,5.6601,5.6601,5.6601,5.6601,5.6601,5.6601,5.6601,5.6601,5.6601,5.6601,5.6601,5.6601,5.6601,5.6601,5.6601,5.6601,5.6601,5.6601,5.6601,5.6601,5.6601,5.6601,5.6601,5.6601,5.6601,5.6601,5.6601,5.6601,5.6601,5.6601,5.6601,5.6601,5.6601,5.6601,5.6601,5.6601,0.0,0.0,0.0,0.0,0.0,4.3563,0.0,0.0,0.0,4.4323,4.444,4.4487,4.4487,4.4547,4.4644,4.4818,4.5001,4.5159,4.5328,4.5494,4.5594,4.5594,4.5594,4.5594,4.5594,4.5614,4.5699,4.5869,4.6021,4.6459,4.7263,4.7343,4.7754,4.8613,4.8652,4.873,4.8906,4.9609,4.9941,4.9961,5.0605,5.1016,5.1172,5.1172,5.125,5.1406,5.1406,5.1406,5.1406,5.1406,5.1406,5.1406,5.1406,5.1836,5.2441,5.2441,5.3008,5.375,5.375,5.4316,5.5058,5.5058,5.5644,5.6387,5.6543,5.6601,5.6601,5.6601,5.6601,5.6601,5.6601,5.6601,5.6601,5.6601,5.6601,5.6601,5.6601,5.6601,5.6601,5.6601,5.6601,5.6601,5.6601,5.6601,5.6601,5.6601,5.6601,5.6601,5.6601,5.6601,5.6601,5.6601,5.6601,5.6601,5.6601,5.6601,5.6601,5.6601,5.6601,5.6601,5.6601,5.6601,5.6601,5.6601,5.6601,5.6601,5.6601,5.6601,5.6601,5.6601,5.6601,5.6601,0.0,0.0,0.0,0.0,4.3506,0.0,0.0,0.0,4.3563,4.3614,0.0,4.4065,4.4065,0.0,0.0,4.4021,4.4595,4.4949,4.4517,4.5109,4.5594,4.5594,4.5594,4.5594,4.5594,4.5708,4.5786,4.5806,4.5986,4.6151,4.6254,4.6382,4.6855,4.7715,4.7754,4.8125,4.8887,4.9004,4.9043,4.9043,4.9141,4.959,5.0332,5.0332,5.0723,5.1406,5.1406,5.1406,5.1406,5.1406,5.1406,5.1406,5.1406,5.1465,5.1543,5.1543,5.2109,5.2851,5.2851,5.3418,5.4141,5.4141,5.4746,5.5586,5.6367,5.6601,5.6601,5.6601,5.6601,5.6601,5.6601,5.6601,5.6601,5.6601,5.6601,5.6601,5.6601,5.6601,5.6601,5.6601,5.6601,5.6601,5.6601,5.6601,5.6601,5.6601,5.6601,5.6601,5.6601,5.6601,5.6601,5.6601,5.6601,5.6601,5.6601,5.6601,5.6601,5.6601,5.6601,5.6601,5.6601,5.6601,5.6601,5.6601,5.6601,5.6601,5.6601,5.6601,5.6601,5.6601,5.6601,5.6601,0.0,0.0,0.0,0.0,0.0,0.0,4.3506,0.0,4.3506,0.0,0.0,0.0,0.0,0.0,0.0,0.0,4.4566,4.4874,4.5037,4.5359,4.5594,4.5594,4.5594,4.5594,4.5594,4.566,4.5731,4.5847,4.5937,4.6046,4.6201,4.6268,4.6465,4.6836,4.6855,4.7012,4.7383,4.7891,4.8144,4.8144,4.8652,4.9082,4.9453,4.9453,4.9629,4.998,5.0488,5.0703,5.0742,5.1211,5.1406,5.1406,5.1406,5.1406,5.1406,5.1406,5.1621,5.1953,5.1953,5.2519,5.332,5.3848,5.4258,5.4707,5.5586,5.5859,5.5957,5.6465,5.6601,5.6601,5.6601,5.6601,5.6601,5.6601,5.6601,5.6601,5.6601,5.6601,5.6601,5.6601,5.6601,5.6601,5.6601,5.6601,5.6601,5.6601,5.6601,5.6601,5.6601,5.6601,5.6601,5.6601,5.6601,5.6601,5.6601,5.6601,5.6601,5.6601,5.6601,5.6601,5.6601,5.6601,5.6601,5.6601,5.6601,5.6601,5.6601,5.6601,5.6601,5.6601,5.6601,5.6601,4.3506,0.0,0.0,0.0,0.0,0.0,0.0,0.0,0.0,0.0,4.3506,0.0,0.0,0.0,0.0,0.0,0.0,4.4861,4.5206,4.5455,4.5594,4.5594,4.5594,4.5594,4.5594,4.5594,4.5673,4.5852,4.5881,4.5997,4.6225,4.6289,4.6308,4.6308,4.6308,4.6308,4.6308,4.6933,4.7246,4.7246,4.7891,4.8301,4.8535,4.8535,4.8672,4.8945,4.957,4.9844,4.9883,5.0469,5.0859,5.1074,5.1074,5.1211,5.1406,5.1406,5.1406,5.1406,5.1406,5.1816,5.248,5.3359,5.3633,5.3808,5.4687,5.5117,5.543,5.6074,5.6426,5.6601,5.6601,5.6601,5.6601,5.6601,5.6601,5.6601,5.6601,5.6601,5.6601,5.6601,5.6601,5.6601,5.6601,5.6601,5.6601,5.6601,5.6601,5.6601,5.6601,5.6601,5.6601,5.6601,5.6601,5.6601,5.6601,5.6601,5.6601,5.6601,5.6601,5.6601,5.6601,5.6601,5.6601,5.6601,5.6601,5.6601,5.6601,5.6601,5.6601,5.6601,5.6601,5.6601,4.3506,4.3506,4.3506,4.3506,4.3506,4.3506,4.3506,4.3506,4.3506,0.0,0.0,0.0,0.0,0.0,0.0,0.0,0.0,0.0,0.0,4.5071,4.5594,4.5594,4.5594,4.5594,4.5594,4.5594,4.5668,4.5796,4.5868,4.5969,4.6108,4.6225,4.6308,4.6308,4.6308,4.6308,4.6308,4.6328,4.6348,4.6348,4.6367,4.6836,4.7637,4.7637,4.8105,4.8906,4.8926,4.8945,4.8945,4.8965,4.9473,5.0234,5.0234,5.0703,5.1406,5.1406,5.1406,5.1406,5.1406,5.1426,5.1582,5.2461,5.2734,5.2891,5.3789,5.4629,5.5312,5.5332,5.5957,5.6601,5.6601,5.6601,5.6601,5.6601,5.6601,5.6601,5.6601,5.6601,5.6601,5.6601,5.6601,5.6601,5.6601,5.6601,5.6601,5.6601,5.6601,5.6601,5.6601,5.6601,5.6601,5.6601,5.6601,5.6601,5.6601,5.6601,5.6601,5.6601,5.6601,5.6601,5.6601,5.6601,5.6601,5.6601,5.6601,5.6601,5.6601,5.6601,5.6601,5.6601,5.6601,5.6601,4.3764,4.3826,4.3826,4.3826,4.3826,4.3772,4.3556,4.3506,4.3506,4.3506,0.0,0.0,0.0,0.0,0.0,0.0,0.0,0.0,0.0,0.0,4.5594,4.5594,4.5594,4.5594,4.5594,4.5594,4.5665,4.5858,4.5896,4.5995,4.6223,4.6288,4.6308,4.6308,4.6308,4.6308,4.6308,4.6308,4.6308,4.6308,4.6308,4.6445,4.6738,4.6738,4.6894,4.7207,4.7793,4.8047,4.8086,4.8652,4.9062,4.9336,4.9336,4.9863,5.0664,5.1191,5.1406,5.1406,5.1406,5.1406,5.1445,5.1738,5.1836,5.1992,5.2871,5.3359,5.3691,5.4277,5.5078,5.5742,5.5742,5.6172,5.6601,5.6601,5.6601,5.6601,5.6601,5.6601,5.6601,5.6601,5.6601,5.6601,5.6601,5.6601,5.6601,5.6601,5.6601,5.6601,5.6601,5.6601,5.6601,5.6601,5.6601,5.6601,5.6601,5.6601,5.6601,5.6601,5.6601,5.6601,5.6601,5.6601,5.6601,5.6601,5.6601,5.6601,5.6601,5.6601,5.6601,5.6601,5.6601,5.6601,4.394,4.4095,4.4204,4.4204,4.4204,4.4121,4.3767,4.3687,4.3687,4.3687,4.3687,0.0,0.0,0.0,0.0,0.0,0.0,0.0,0.0,4.5594,4.5594,4.5594,4.5594,4.5594,4.5594,4.5647,4.5729,4.5885,4.5936,4.6075,4.6289,4.6308,4.6308,4.6308,4.6308,4.6308,4.6308,4.6308,4.6308,4.6308,4.6308,4.6308,4.6308,4.6308,4.6308,4.6328,4.6894,4.7148,4.7187,4.7734,4.8164,4.8437,4.8395,4.8901,4.9761,5.0644,5.1152,5.1387,5.1344,5.1322,5.1321,5.1308,5.1313,5.1437,5.1972,5.2395,5.2871,5.3707,5.4373,5.498,5.5605,5.5957,5.6211,5.6523,5.6601,5.6601,5.6601,5.6601,5.6601,5.6601,5.6601,5.6601,5.6601,5.6601,5.6601,5.6601,5.6601,5.6601,5.6601,5.6601,5.6601,5.6601,5.6601,5.6601,5.6601,5.6601,5.6601,5.6601,5.6601,5.6601,5.6601,5.6601,5.6758,5.7051,5.6758,5.6758,5.7051,5.6758,5.6601,5.6601,5.6601,5.6601]}]]